GFSFLT2_sfc_temp_000.txt.gz
Temp
67 68 70 69 69 70 69 70 70 70 69 69 69 68 69 69 69 69 69 70 70 70 68 68 69 68 67 67 67 68 67 66
65 66 66 65 65 68 68 69 69 69 68 67 67 67 68 68 68 68 68 69 68 68 68 68 68 68 67 66 66 66 64 65
66 66 66 65 65 68 68 69 69 68 68 66 65 63 63 63 65 67 67 67 67 66 66 66 65 65 66 65 66 63 63 63
64 64 65 65 72 66 64 67 65 65 65 64 63 61 60 63 64 66 66 65 65 64 64 64 62 58 58 61 60 61 61 62
65 65 64 64 65 63 63 63 63 63 63 62 61 61 60 59 59 59 58 61 57 58 57 56 57 57 57 57 58 59 59 60
63 64 64 63 62 63 62 62 62 61 61 61 59 58 57 57 57 58 57 57 56 55 55 55 54 55 56 55 56 56 57 60
62 63 63 63 62 60 60 60 60 59 59 60 59 58 57 57 57 57 56 56 56 54 55 58 57 58 57 56 56 56 57 58
61 62 63 63 60 60 59 59 58 58 58 59 59 57 56 56 56 56 55 55 54 54 53 52 52 53 55 59 59 58 58 58
61 61 61 61 61 60 59 59 59 57 58 58 58 57 56 55 54 54 54 54 54 53 52 51 51 52 52 53 54 55 55 57
62 67 61 60 59 59 59 59 56 57 57 57 58 59 58 55 53 53 53 53 52 51 50 50 49 48 48 49 51 53 53 55
61 61 61 60 58 57 57 58 56 56 55 56 58 58 58 55 54 53 54 53 51 52 50 50 49 49 50 51 50 49 51 55
61 61 61 60 57 56 55 55 55 54 55 55 58 58 58 54 54 53 53 52 51 50 50 50 49 49 53 52 48 50 49 49
60 60 60 57 55 54 53 54 54 54 54 57 56 57 57 55 53 53 52 51 51 51 50 49 48 48 46 47 47 48 49 52
60 60 59 58 55 55 55 54 54 55 55 54 55 56 56 56 53 52 52 50 50 50 50 48 47 47 45 42 41 47 48 50
61 60 60 58 57 55 53 52 52 52 53 53 54 55 56 55 54 52 51 50 49 50 49 48 45 46 47 45 39 38 44 48
58 60 59 59 57 54 53 58 57 59 59 53 54 56 55 55 54 52 50 49 49 48 50 46 45 43 45 49 45 42 39 41
57 58 58 60 58 55 53 54 56 58 51 52 51 51 53 53 53 51 49 49 49 48 48 46 46 44 44 42 42 42 41 40
57 56 58 58 57 56 52 52 55 53 52 51 49 47 47 48 50 48 48 47 48 47 48 46 46 46 44 43 41 40 42 39
55 55 57 59 55 54 54 53 53 52 54 52 50 49 48 48 48 48 47 46 46 46 47 47 45 45 42 42 44 43 44 43
56 58 56 57 55 55 52 51 49 49 49 47 44 47 46 47 45 45 46 46 45 46 46 45 45 42 43 43 45 45 44 45

GFSFLT2_sfc_temp_003.txt.gz
Temp
66 67 69 69 69 69 69 69 69 69 69 69 69 68 68 68 69 69 69 70 69 69 68 68 68 68 67 66 66 67 64 65
65 65 65 64 64 68 68 68 68 68 68 68 67 67 68 68 67 68 68 68 68 67 67 67 67 66 66 65 65 65 63 64
64 64 64 63 63 66 68 69 68 67 67 67 65 62 61 62 65 67 67 66 66 65 65 65 64 63 63 64 64 60 61 61
65 64 64 63 69 65 63 65 64 64 64 63 61 60 59 62 64 66 66 65 65 64 63 62 60 56 56 60 57 59 59 60
63 63 63 63 64 62 61 61 61 62 62 61 60 59 59 58 57 58 57 61 56 57 56 54 54 54 54 54 56 56 58 60
63 62 61 60 61 62 62 61 61 61 60 60 58 56 56 57 57 57 56 56 55 55 54 54 54 55 55 54 55 55 55 56
61 61 60 61 60 58 59 59 61 60 59 59 59 57 56 56 56 56 55 55 54 53 53 54 54 55 55 56 56 56 57 57
60 60 60 60 59 58 58 58 58 57 57 58 59 57 56 56 56 55 55 54 53 52 51 50 50 51 52 54 54 55 55 56
60 59 59 59 59 58 57 57 57 56 56 57 57 56 55 55 54 54 54 53 53 52 50 50 49 50 50 50 51 52 53 53
59 64 59 58 57 57 57 56 55 55 55 55 56 56 55 53 52 52 52 52 52 50 49 49 48 47 47 48 49 50 51 51
59 59 58 58 57 56 56 56 55 55 54 54 55 56 56 54 52 52 52 51 50 50 49 48 48 48 49 49 48 48 49 53
59 58 58 57 56 54 53 53 53 53 54 54 56 55 56 53 52 52 51 50 49 48 49 48 48 48 52 51 48 48 48 48
58 58 57 55 53 53 52 53 53 53 53 55 55 56 55 53 52 52 51 50 50 49 48 48 47 46 45 45 46 46 48 48
57 58 58 56 54 54 54 52 52 53 53 53 55 56 56 54 53 53 52 50 49 48 48 46 46 45 44 41 40 43 45 48
58 59 58 57 56 53 52 51 51 50 52 51 54 55 57 55 54 53 52 51 50 48 47 47 45 44 45 43 38 36 39 44
56 56 56 57 56 54 52 54 55 59 57 56 56 52 56 57 56 52 51 48 47 46 47 45 44 42 42 47 43 42 36 36
53 55 56 57 55 54 52 51 54 56 54 49 51 51 51 54 55 53 49 49 49 48 46 45 44 43 43 41 40 39 39 36
54 55 56 57 56 54 51 49 51 50 50 48 50 46 47 48 49 50 48 48 47 45 46 47 46 45 43 42 41 40 38 36
53 52 53 53 52 52 53 51 48 47 48 48 46 43 43 43 46 45 45 45 45 47 45 45 45 43 41 41 44 41 40 39
50 51 51 52 51 51 50 48 47 47 45 45 42 41 40 42 43 45 45 44 45 46 44 43 43 42 42 42 40 40 40 40

GFSFLT2_sfc_temp_006.txt.gz
Temp
64 66 68 69 69 69 69 69 69 69 69 69 69 68 68 68 69 69 69 69 68 68 67 67 67 67 66 65 65 66 63 63
63 64 64 63 64 68 68 68 68 68 68 68 67 67 67 67 66 68 68 68 67 66 66 66 65 64 64 64 64 63 62 62
63 63 63 62 62 65 68 69 68 67 67 67 64 61 60 60 65 67 67 66 66 65 65 64 63 62 63 63 62 59 61 62
63 63 63 62 67 63 62 64 64 64 63 62 61 59 59 61 63 66 66 65 65 64 63 62 59 55 55 58 55 57 58 59
64 63 63 62 62 61 60 60 61 61 62 61 59 59 57 57 56 57 56 61 55 56 55 54 54 53 54 54 55 55 55 57
63 62 61 61 61 61 60 60 60 60 60 60 58 56 55 56 55 56 56 55 54 54 54 54 54 55 55 55 55 55 55 56
61 60 60 59 60 59 59 60 60 60 59 59 58 56 55 55 56 55 55 55 54 54 53 52 52 53 53 54 54 55 55 55
59 59 59 58 57 57 57 57 58 58 57 58 58 57 55 55 55 55 54 54 53 52 50 50 49 50 52 52 53 53 53 54
58 58 58 58 57 57 55 56 56 55 55 56 56 57 55 55 54 54 54 53 52 51 50 49 48 50 50 50 50 51 52 52
58 62 57 57 56 56 55 55 54 54 54 54 55 56 55 53 52 52 53 51 51 50 48 48 48 47 47 48 49 50 51 51
58 58 57 56 55 55 54 55 53 54 53 53 54 54 54 52 51 51 51 50 49 49 47 48 47 47 48 48 48 48 49 52
58 57 56 55 54 52 52 51 52 52 52 52 54 54 54 52 51 51 50 49 48 47 47 46 47 47 51 50 47 48 47 48
57 56 56 54 52 52 51 52 52 52 52 53 53 54 54 53 52 51 50 50 51 48 47 47 46 45 45 45 45 46 46 48
56 57 56 54 52 52 51 50 51 51 51 52 53 53 54 54 53 53 51 51 48 48 46 45 45 44 44 41 41 43 45 47
55 55 55 54 54 52 52 50 51 51 54 52 54 53 54 54 55 54 52 51 51 50 48 46 45 43 43 43 37 37 39 43
54 54 54 56 54 52 50 49 49 52 52 53 55 52 51 53 54 52 52 52 51 48 48 46 44 42 42 46 43 42 38 37
50 53 54 53 52 51 50 50 49 50 50 48 50 50 48 50 51 51 49 46 46 48 46 44 46 43 43 41 40 40 40 38
50 52 53 53 51 50 48 46 46 47 49 46 47 46 44 44 45 45 44 43 43 43 45 45 42 44 43 42 41 41 39 37
51 50 51 51 49 48 47 46 46 45 47 47 45 43 40 39 41 42 42 41 43 44 43 43 43 42 43 43 43 42 43 41
48 48 49 48 48 48 47 47 46 47 47 45 41 40 39 40 41 42 41 42 42 43 42 42 42 41 40 39 39 40 41 41

GFSFLT2_sfc_temp_009.txt.gz
Temp
75 76 74 69 69 70 69 69 70 70 69 69 69 69 68 69 69 69 69 69 68 68 67 67 66 66 66 65 65 65 73 73
73 74 76 74 75 68 68 68 68 69 69 68 68 67 67 68 67 68 68 67 67 67 66 65 65 64 64 64 63 65 72 72
74 73 73 73 74 73 70 69 68 68 69 67 68 74 73 71 67 67 67 67 66 66 65 64 63 63 63 62 64 73 73 74
74 73 73 72 74 74 73 73 75 74 74 72 74 71 71 70 68 66 66 65 64 64 63 62 65 71 71 66 72 70 73 72
74 73 72 72 73 75 75 75 74 74 71 71 71 71 70 71 70 71 70 66 69 67 68 68 67 67 68 68 69 69 72 73
74 73 71 71 74 74 74 73 73 73 73 70 70 70 69 68 69 69 68 70 67 67 67 66 66 66 66 66 67 69 72 72
74 72 71 71 70 72 71 71 72 72 72 71 70 70 69 69 68 68 68 69 68 67 67 66 65 65 66 66 66 66 67 71
72 71 70 70 70 69 71 70 71 71 71 71 69 69 68 69 68 69 69 68 68 66 65 66 65 64 64 65 65 67 67 67
70 70 70 69 69 69 70 71 69 70 70 69 68 68 68 67 68 68 69 68 66 65 64 64 64 64 63 64 64 65 67 66
70 71 70 69 68 70 70 71 69 69 69 69 67 67 67 67 67 67 68 66 66 65 65 64 64 64 64 66 66 65 65 65
71 70 70 69 68 69 68 67 68 69 68 69 67 67 66 66 67 67 65 66 64 64 64 62 64 64 64 65 65 65 64 66
71 70 69 67 68 67 68 67 68 67 68 68 66 67 65 65 66 64 65 65 64 63 61 63 63 64 64 64 64 65 64 64
70 69 67 67 67 67 68 67 67 68 69 67 65 66 65 64 65 65 64 62 63 63 62 59 61 61 60 61 62 62 61 63
66 65 65 65 67 66 65 64 66 65 65 65 66 64 65 64 63 64 64 63 62 62 60 61 60 61 60 60 56 60 60 60
64 64 65 64 64 66 66 65 65 66 67 67 66 64 64 63 62 62 62 62 60 62 61 59 60 60 59 60 55 53 59 59
64 64 65 64 63 62 60 60 60 62 62 63 63 62 62 62 60 60 60 60 59 60 62 60 59 59 56 57 56 55 54 54
61 63 63 62 61 60 60 59 60 60 60 59 59 60 60 59 58 57 57 58 58 57 57 55 57 57 55 54 53 54 53 52
61 62 62 62 61 59 58 56 56 57 58 58 59 59 58 55 55 54 53 53 52 53 53 52 52 53 52 53 53 51 50 49
61 61 61 60 59 58 57 56 56 56 56 56 56 56 55 53 52 52 51 51 51 51 50 48 47 46 44 43 44 41 41 39
59 60 60 60 58 57 56 56 56 55 55 55 54 52 52 51 51 52 52 51 51 51 49 43 42 41 39 38 37 38 39 39

GFSFLT2_sfc_temp_012.txt.gz
Temp
86 86 78 70 70 70 70 70 70 71 70 70 70 69 69 69 69 70 69 69 68 68 68 67 67 66 66 66 65 66 79 81
85 84 85 84 84 70 70 70 70 70 70 69 68 69 69 68 69 69 68 68 68 67 66 66 65 65 65 65 65 67 81 82
84 85 84 84 85 80 71 70 70 69 71 69 71 84 81 78 68 67 67 67 66 66 65 64 64 64 64 63 64 82 80 83
85 83 82 82 85 83 84 83 86 84 82 80 83 79 80 75 71 66 66 66 65 64 64 64 66 81 80 69 81 78 80 80
85 82 81 81 85 87 88 87 86 85 80 80 81 79 80 80 80 80 79 70 79 76 77 79 75 76 77 76 77 76 80 81
85 83 81 80 85 86 87 85 85 83 83 78 79 80 79 78 79 79 78 79 76 77 77 74 74 74 74 74 74 76 80 80
85 83 81 81 79 84 82 81 83 82 81 81 79 79 77 78 78 78 78 78 77 76 77 76 74 74 74 73 74 74 74 78
85 83 81 82 81 80 81 82 82 82 82 81 78 77 77 78 77 78 78 79 78 77 76 75 75 74 73 73 73 74 74 74
84 82 82 81 80 80 82 84 81 82 82 79 77 77 77 76 77 77 78 78 75 75 74 74 73 75 73 73 73 72 73 72
84 82 81 80 81 82 83 84 81 82 81 79 77 76 75 75 76 76 77 76 76 75 75 74 73 73 73 74 74 74 72 72
82 81 82 81 80 81 80 78 80 82 81 81 78 76 75 74 75 76 75 75 74 74 73 73 72 73 73 73 73 73 73 74
82 82 79 78 81 79 81 80 80 80 81 80 77 77 74 73 74 73 73 73 73 73 71 73 72 71 73 73 73 73 73 72
79 77 73 79 80 77 79 77 78 79 79 75 74 75 73 72 73 72 72 71 71 70 70 68 68 71 67 68 70 71 69 71
75 75 75 76 79 77 75 73 76 75 76 75 75 72 72 72 70 70 70 70 69 68 67 67 68 69 65 65 62 67 70 69
74 74 74 73 73 77 77 77 76 75 72 73 72 71 71 70 69 69 68 68 68 68 67 66 64 68 68 63 61 59 66 70
73 73 73 72 71 72 68 70 67 69 69 70 70 70 69 69 68 67 66 67 65 66 68 66 65 63 66 68 66 65 60 59
72 72 72 71 70 68 69 67 68 69 68 66 67 68 68 68 67 64 64 65 64 63 62 62 63 62 62 62 58 61 61 55
70 71 70 70 69 67 64 64 64 64 65 64 65 65 66 66 65 62 61 61 60 60 59 56 56 55 56 56 54 48 50 50
69 70 69 69 67 66 66 65 64 63 62 62 60 62 62 61 61 60 60 59 59 56 50 48 46 43 41 41 40 39 39 40
68 69 69 69 67 66 66 64 64 62 61 60 59 59 59 59 59 59 58 58 57 55 50 48 43 41 40 39 39 39 40 39

GFSFLT2_sfc_temp_015.txt.gz
Temp
89 87 78 71 71 71 71 71 71 71 71 71 70 70 70 70 70 70 70 69 69 68 68 67 67 67 67 66 66 68 75 84
89 89 90 87 81 70 71 71 71 70 70 70 69 70 70 70 71 69 69 68 68 67 67 66 66 66 66 66 66 66 77 83
89 89 88 87 88 79 71 70 71 70 71 70 72 82 83 80 68 68 68 68 67 66 66 66 67 66 66 68 66 81 81 83
89 87 86 86 89 86 86 86 87 85 85 83 85 82 82 79 72 69 69 68 68 67 67 67 66 80 77 68 78 80 79 82
89 85 85 85 86 88 90 90 87 87 84 82 82 82 82 82 82 82 80 72 80 75 77 79 78 77 78 77 79 78 81 82
89 87 84 84 88 89 88 88 87 86 84 82 81 81 80 80 81 81 80 81 78 79 79 78 76 76 76 75 75 76 80 80
89 87 84 85 84 86 85 84 86 83 84 83 82 80 78 80 79 80 80 80 80 78 78 78 77 76 77 75 75 75 75 77
89 88 85 86 84 83 83 84 84 84 85 82 80 79 78 78 78 79 79 80 80 78 77 76 76 77 76 75 74 75 76 76
89 87 87 84 84 84 85 86 84 85 84 82 80 79 78 77 78 78 79 79 78 78 77 77 76 77 75 76 75 74 74 74
90 88 86 84 85 85 86 87 84 84 84 83 80 79 78 76 77 77 78 77 77 77 76 75 75 75 75 75 76 76 75 74
87 86 84 84 84 85 83 82 82 84 83 83 81 79 78 76 76 76 76 75 75 75 75 74 73 73 74 76 75 75 75 77
86 85 84 82 84 82 83 82 82 83 82 82 79 78 76 75 75 74 74 74 74 74 72 73 73 72 73 74 74 76 75 74
84 81 78 82 83 79 80 78 80 81 82 79 77 77 75 73 74 73 73 72 71 71 71 69 69 72 70 70 71 72 72 74
80 79 78 79 81 79 77 75 78 78 79 77 77 75 73 72 71 71 71 70 69 69 68 67 69 70 66 66 62 67 72 72
78 78 77 76 76 80 78 78 78 77 77 75 75 73 72 71 70 69 68 68 68 68 67 66 65 68 68 64 59 58 65 72
77 76 77 76 74 74 71 72 70 72 72 73 72 71 71 71 70 68 67 65 64 65 68 65 64 62 66 68 66 63 56 55
75 76 75 75 74 71 69 68 69 71 70 69 68 69 69 69 68 66 64 64 63 62 61 61 61 59 59 59 56 57 57 49
74 74 75 74 72 71 68 66 67 66 66 65 66 65 66 66 65 63 62 62 61 61 56 55 53 52 50 48 45 44 44 45
73 74 73 74 72 70 69 68 66 65 64 63 60 61 61 62 61 61 61 61 57 54 51 50 48 46 42 41 41 39 39 38
71 71 72 73 71 69 69 67 65 64 62 59 59 59 59 60 60 60 56 55 52 49 46 44 44 46 45 43 42 43 44 42

GFSFLT2_sfc_temp_018.txt.gz
Temp
79 75 73 71 71 71 70 71 71 71 71 70 70 70 70 71 70 70 70 69 69 68 68 68 68 67 67 67 66 67 65 70
81 78 77 74 70 70 70 70 70 70 70 70 70 70 70 70 70 70 69 69 68 68 68 68 68 68 68 68 66 66 65 69
81 83 80 79 75 73 70 71 70 70 70 70 69 72 71 70 69 69 69 69 68 68 68 67 66 66 66 66 66 66 70 70
82 79 78 79 86 74 74 77 74 74 76 74 75 74 74 76 71 68 68 68 68 67 67 66 66 66 65 65 63 69 68 69
82 79 79 79 78 77 78 78 76 76 76 74 74 74 72 71 69 68 65 66 67 66 66 64 69 67 67 66 67 67 66 68
82 80 78 78 78 77 76 77 75 75 74 74 72 70 70 69 69 69 68 68 68 68 67 68 68 69 68 67 66 65 65 65
82 80 78 77 76 75 75 74 74 74 74 73 72 70 68 69 68 68 68 68 67 67 67 67 67 68 67 67 67 66 66 65
81 81 79 79 77 75 74 74 74 74 73 72 73 70 68 68 67 68 67 68 67 66 66 65 65 66 66 67 66 66 66 65
74 68 79 77 77 76 75 75 75 73 73 73 73 72 69 68 66 66 67 67 67 66 66 65 64 67 66 66 65 65 64 65
82 84 79 76 76 75 76 75 73 73 73 72 72 72 71 67 66 65 66 66 65 64 63 63 63 63 62 63 64 65 65 64
83 80 79 77 76 76 74 74 72 73 71 71 70 71 70 66 65 64 65 64 63 63 63 62 61 61 63 64 63 63 63 70
81 77 74 73 75 74 73 72 72 72 71 70 70 69 68 65 64 63 64 62 61 61 60 61 60 60 67 67 65 65 65 61
77 72 72 73 72 69 68 67 68 70 70 70 69 69 67 64 62 62 61 60 59 60 59 58 59 59 59 60 61 64 63 65
74 74 72 72 72 70 69 67 69 69 69 69 69 66 65 66 62 61 60 58 57 57 56 57 57 57 55 56 53 57 61 64
73 72 71 69 68 71 69 68 68 67 66 66 67 65 65 63 61 59 58 58 55 54 56 55 54 55 55 53 50 48 53 58
72 72 72 71 68 66 63 63 62 63 63 64 64 63 62 62 61 58 56 56 54 54 58 53 52 50 52 53 49 48 45 46
69 71 72 70 68 66 62 61 61 62 61 60 59 59 59 60 59 56 55 55 54 53 51 50 49 47 45 45 44 44 46 42
69 70 71 71 68 66 63 61 59 58 58 57 56 56 56 56 57 55 54 53 51 50 48 48 46 46 45 44 42 40 39 38
69 69 68 69 67 65 63 60 59 57 56 54 53 53 53 53 54 53 52 50 49 48 45 43 43 43 43 40 42 40 40 38
68 67 67 67 64 63 62 61 58 56 54 53 51 51 52 53 52 52 48 48 49 48 46 44 42 42 43 43 41 42 40 40

GFSFLT2_sfc_temp_021.txt.gz
Temp
67 69 71 70 69 69 69 70 70 70 70 70 70 70 70 70 70 70 70 69 69 68 68 68 68 68 67 66 66 66 63 63
67 67 68 66 66 68 69 69 69 69 70 69 69 69 69 70 69 70 70 69 69 69 68 68 67 67 66 66 65 66 63 63
70 69 68 67 66 69 69 69 69 69 69 69 67 66 67 68 67 68 69 69 68 68 68 67 66 66 66 66 66 61 62 63
73 72 69 69 76 68 66 69 67 67 68 67 66 65 65 69 67 68 69 68 68 67 67 67 66 62 62 65 61 62 63 63
72 72 72 72 71 66 66 66 66 66 68 68 68 67 65 64 62 63 61 65 62 65 63 62 62 61 63 62 63 63 61 61
73 72 72 70 69 68 68 68 67 67 67 68 65 63 63 63 63 63 62 61 60 61 60 63 62 64 64 63 63 62 61 60
74 72 70 72 70 67 68 66 67 67 66 67 65 64 63 63 62 63 62 62 62 61 61 63 63 64 64 63 63 63 62 61
72 67 69 71 69 69 67 66 67 66 65 66 67 64 62 62 61 62 62 62 61 61 61 60 60 61 62 63 63 62 62 62
66 65 63 68 67 69 67 66 68 65 65 66 66 66 64 63 61 60 61 61 61 61 60 60 59 62 60 61 61 61 61 62
71 71 63 64 64 67 67 66 65 65 64 64 65 66 64 61 60 59 60 60 60 59 58 58 57 57 57 58 59 60 61 61
68 67 65 64 64 66 64 66 66 65 64 63 65 64 63 60 59 58 58 58 57 57 57 55 55 57 61 62 57 57 58 64
68 66 63 64 64 65 63 63 63 63 62 63 64 62 62 59 59 57 57 56 55 54 53 55 53 54 61 61 58 57 57 57
65 63 62 63 62 60 60 59 61 62 63 64 63 62 61 59 57 56 55 54 53 53 52 51 54 53 54 55 52 54 56 58
64 64 63 63 61 60 60 58 60 60 60 61 61 59 59 60 55 54 54 52 52 51 50 50 49 50 47 49 46 51 52 55
64 63 63 61 61 60 59 59 58 58 58 59 58 57 58 56 54 52 51 51 50 49 49 48 45 47 47 44 41 41 44 52
62 63 63 62 61 58 57 54 54 55 54 54 55 55 55 56 54 52 50 50 48 48 50 46 45 42 44 48 44 45 41 40
61 63 62 61 60 59 55 54 54 54 52 52 51 52 53 54 54 50 48 48 46 45 45 47 47 45 43 43 43 40 38 35
59 61 61 60 61 58 54 53 53 50 49 48 48 49 49 50 50 48 47 45 45 45 46 45 44 44 44 43 41 39 39 38
60 59 60 59 58 56 54 52 50 48 47 46 46 46 46 46 47 45 44 45 44 43 43 44 43 41 39 38 38 39 40 38
58 59 60 58 57 54 53 52 49 48 48 47 46 45 45 46 45 45 46 46 44 43 42 42 41 39 38 38 40 40 41 40

GFSFLT2_sfc_temp_024.txt.gz
Temp
65 67 70 69 69 69 69 70 70 70 70 70 70 70 70 70 70 70 70 70 70 69 69 68 68 68 67 67 66 66 60 62
63 65 66 65 65 68 68 69 69 69 70 69 69 69 69 69 69 70 70 70 69 69 68 68 68 67 66 66 65 65 60 61
64 65 65 65 65 68 68 69 69 68 69 69 66 65 65 67 67 68 69 69 69 69 68 67 66 66 66 65 66 60 60 61
67 65 65 65 73 66 65 68 66 66 66 65 64 63 63 67 66 68 68 68 68 68 67 66 65 60 60 64 60 61 60 60
68 67 66 66 68 64 63 64 63 64 65 64 63 64 63 63 61 62 60 64 61 62 62 61 60 59 60 59 60 61 58 59
70 68 67 66 66 64 64 65 64 64 65 65 62 61 60 60 59 59 59 59 59 58 58 60 60 61 61 61 61 59 59 59
67 67 66 67 66 65 65 65 64 64 64 65 63 61 60 60 60 60 59 59 58 58 59 60 59 60 61 61 61 60 60 59
65 67 67 68 67 67 65 64 64 63 63 63 64 62 60 60 59 59 59 58 58 58 57 57 57 58 59 60 60 60 59 59
68 66 66 66 66 66 65 65 64 63 62 62 63 62 60 59 58 58 57 57 57 57 56 56 56 59 57 58 58 59 58 59
69 70 64 63 64 63 64 64 61 62 62 61 63 62 61 58 57 56 56 56 56 55 54 54 53 53 52 55 55 57 58 58
62 63 61 62 62 62 61 61 61 60 60 60 61 62 60 57 56 55 55 54 53 53 53 51 50 52 56 57 56 53 55 61
62 61 61 62 60 60 59 59 59 59 59 59 59 58 58 55 56 53 54 53 52 51 50 50 49 49 56 55 51 53 52 52
59 59 58 59 57 56 57 56 57 58 59 59 59 59 58 56 53 52 51 50 49 50 49 48 50 48 46 50 49 51 50 50
59 59 59 59 58 56 57 56 56 56 57 57 57 57 56 57 51 50 49 49 48 47 47 45 46 45 43 43 42 48 46 51
59 59 59 58 58 57 56 55 54 54 52 52 55 55 54 52 50 48 47 47 45 44 45 44 43 44 44 44 41 40 41 45
59 59 59 59 58 57 55 52 51 50 49 49 50 51 51 52 49 47 46 45 44 44 47 46 47 43 46 47 45 43 37 37
57 59 59 58 56 54 52 51 50 49 48 48 49 49 50 50 49 46 45 44 43 42 41 41 41 40 39 39 43 40 38 35
55 56 56 56 55 53 51 50 48 47 47 46 46 46 45 46 47 44 43 42 41 41 40 40 39 39 39 38 37 37 36 37
56 56 55 55 53 52 50 49 48 47 46 45 44 43 43 43 43 43 42 43 43 45 42 41 39 38 37 37 38 39 40 39
54 55 54 53 52 51 50 49 47 47 47 45 43 42 43 44 43 43 43 44 44 42 39 38 38 36 36 36 38 41 40 38

GFSFLT2_sfc_temp_027.txt.gz
Temp
65 66 69 69 69 69 69 69 70 70 70 70 70 70 70 70 70 70 70 70 70 70 69 68 68 68 67 66 65 66 59 60
63 64 64 64 64 68 68 69 69 69 69 69 69 69 69 69 69 69 70 70 70 69 69 68 67 67 66 66 65 64 59 60
62 62 63 63 63 67 68 69 68 68 68 69 66 64 64 65 67 68 69 69 69 69 68 67 66 65 65 65 65 59 59 59
62 62 63 63 70 65 64 66 65 65 65 64 63 62 62 65 65 67 68 67 67 67 67 66 64 59 59 62 59 59 59 59
65 64 63 63 66 63 62 63 63 63 64 63 62 63 61 61 60 59 59 63 59 61 60 59 59 58 58 58 59 59 57 58
66 64 64 63 63 63 62 62 64 63 63 63 60 59 58 58 58 58 57 57 57 57 56 58 58 58 59 58 58 58 57 58
66 64 64 64 63 62 63 63 64 64 63 63 61 59 58 58 58 57 57 57 56 56 56 56 56 57 57 57 58 58 58 57
65 64 63 64 63 63 63 62 63 62 62 62 62 60 58 58 57 57 56 56 55 55 54 54 54 55 56 56 57 56 57 57
64 64 63 63 63 62 61 62 62 61 61 61 61 60 58 56 55 55 54 54 54 54 54 53 52 54 53 54 54 55 57 56
63 66 63 61 61 60 60 60 59 59 59 58 58 58 57 54 53 52 53 53 52 52 51 50 50 49 48 50 51 53 54 55
61 60 61 60 59 58 58 57 58 57 57 57 56 56 55 53 51 51 51 51 50 50 50 48 48 50 52 53 50 49 50 55
59 61 61 59 56 57 58 59 58 57 55 56 55 55 54 53 53 53 52 51 50 49 47 48 47 46 52 51 48 49 49 47
58 58 57 57 55 55 55 52 53 53 55 54 53 56 55 51 50 49 48 47 46 46 45 45 45 45 43 48 46 47 46 46
58 58 59 57 57 55 55 53 52 52 51 52 54 53 52 51 47 47 46 46 45 44 43 43 43 43 40 40 38 45 44 49
58 57 58 57 57 55 54 54 52 50 49 48 50 50 50 49 47 46 45 44 43 42 42 41 40 42 41 39 35 33 39 42
56 57 57 57 56 55 54 52 49 48 47 47 48 49 48 48 47 46 44 43 42 42 43 40 40 37 39 43 40 38 37 34
54 55 55 55 54 53 51 50 49 48 47 47 48 47 47 47 46 44 43 42 41 41 40 39 39 39 37 37 36 37 35 36
52 53 53 53 53 52 51 48 47 46 45 45 44 44 44 44 45 43 42 41 41 40 39 39 38 37 37 36 36 37 37 37
52 53 53 52 51 50 49 48 47 46 46 44 43 42 42 42 43 41 41 41 41 40 39 38 37 36 35 34 35 35 39 38
52 52 52 51 50 49 48 48 47 46 46 43 42 42 42 43 42 42 42 42 41 40 38 37 36 35 34 34 34 36 37 37

GFSFLT2_sfc_temp_030.txt.gz
Temp
65 67 69 69 69 69 69 69 70 70 70 70 70 70 70 70 70 70 70 70 70 70 69 68 68 67 67 66 65 65 59 60
63 64 65 64 65 68 68 68 69 69 70 69 69 69 69 69 69 69 70 70 69 69 68 67 67 66 65 65 65 64 59 59
61 62 62 62 63 66 68 69 69 68 69 69 66 63 63 65 67 68 68 68 68 68 67 66 65 64 64 64 64 59 59 59
60 61 61 61 68 64 63 65 64 64 64 64 63 62 61 64 65 66 66 66 66 65 65 64 62 58 58 61 58 59 58 58
62 61 61 61 64 61 61 61 62 62 63 63 62 62 60 60 59 58 58 62 58 59 58 58 58 57 57 57 57 58 57 58
63 62 61 61 62 61 61 61 61 61 63 63 60 58 58 57 57 57 56 56 56 55 55 56 56 57 57 56 56 56 56 57
63 62 62 62 62 61 61 61 62 62 62 62 60 58 56 56 56 55 55 55 54 54 54 54 54 55 55 55 55 55 56 57
63 62 62 62 61 61 60 61 61 61 60 60 60 57 56 55 54 54 53 53 52 52 52 52 52 53 53 54 54 54 54 54
61 62 61 60 60 60 60 59 60 58 58 58 57 56 54 53 52 52 51 51 51 51 51 51 50 52 51 52 52 53 53 53
62 63 60 60 59 58 58 56 55 57 56 55 55 55 53 52 51 50 50 50 50 49 49 49 48 47 47 49 49 50 51 52
60 60 59 59 57 56 56 56 55 54 54 54 53 54 52 51 49 49 50 49 47 47 47 47 46 46 49 49 48 48 48 52
60 58 57 57 56 56 57 55 53 53 52 52 52 54 55 54 52 48 48 47 46 46 45 46 45 43 49 49 46 47 47 46
59 58 58 57 56 53 51 49 50 50 51 52 55 54 51 49 47 47 47 45 44 44 43 43 43 43 42 44 44 46 44 45
58 57 56 56 54 52 52 49 49 49 49 49 50 50 50 49 46 45 45 44 43 42 41 41 41 41 38 38 36 40 43 47
57 56 56 55 54 54 50 50 49 48 47 47 48 49 48 47 47 45 44 43 41 40 40 39 38 40 40 38 34 32 38 42
54 55 54 55 54 52 51 49 47 46 46 45 46 48 47 47 46 45 43 42 41 41 42 40 39 37 38 42 39 38 35 35
52 54 54 54 53 52 49 47 46 45 45 45 45 45 46 46 45 44 42 42 41 40 39 39 38 37 36 36 36 36 37 36
54 55 53 52 52 51 50 47 45 45 45 44 44 43 43 43 44 42 41 41 40 39 39 38 37 36 36 35 35 36 36 36
52 52 51 51 50 49 48 47 47 47 46 44 43 42 41 41 41 41 40 41 40 39 38 37 36 35 34 34 34 34 36 35
51 51 50 49 49 48 48 48 45 45 45 43 42 41 41 42 41 41 41 41 40 40 38 37 36 35 34 33 33 34 35 35

GFSFLT2_sfc_temp_033.txt.gz
Temp
75 76 74 70 69 69 69 70 70 70 70 70 70 70 70 70 70 71 71 70 70 70 69 68 68 67 66 66 65 65 76 76
73 74 75 75 74 68 68 69 69 69 70 69 69 69 69 69 69 69 70 69 69 69 68 67 67 66 65 65 64 67 75 76
70 72 72 72 73 72 69 69 69 69 70 69 68 75 74 74 68 68 68 68 68 67 67 65 65 66 64 64 67 75 75 75
70 70 71 71 73 73 73 74 75 74 74 73 74 72 73 73 69 66 66 66 66 66 65 66 69 73 73 69 73 72 74 73
71 70 70 71 72 72 73 74 73 73 72 72 72 72 72 73 72 71 70 67 71 70 71 71 69 70 70 70 70 72 72 73
71 70 69 68 73 73 72 73 72 73 73 71 71 71 68 68 68 69 68 69 68 69 69 67 67 67 67 68 68 70 71 71
71 70 69 69 69 70 70 70 72 71 71 69 70 69 66 68 66 67 67 68 67 67 67 67 66 67 67 67 67 67 67 69
70 69 69 70 70 69 69 68 68 68 66 66 67 68 66 66 65 65 65 66 66 66 65 66 65 65 65 65 65 66 66 65
68 67 67 66 66 64 63 62 64 62 63 63 64 65 64 64 64 64 64 64 64 64 64 65 64 64 63 64 64 64 64 63
68 66 64 63 62 60 58 57 58 59 61 62 63 62 63 63 63 62 62 63 63 62 61 62 61 61 61 63 63 64 62 61
64 64 63 61 57 55 54 58 59 61 62 63 62 61 60 62 61 61 61 61 60 60 60 59 58 58 60 62 61 63 62 62
64 61 59 56 55 56 57 59 59 62 63 63 63 63 61 61 61 59 60 60 58 58 57 58 56 55 57 58 59 61 61 59
63 57 56 57 57 57 60 59 61 61 63 62 61 61 61 61 60 59 59 57 55 55 56 54 56 54 54 55 57 58 57 58
60 63 61 64 66 65 65 63 62 61 61 60 61 60 60 60 59 58 57 58 55 54 53 53 54 53 49 51 49 53 57 55
65 65 65 66 65 63 61 60 60 60 60 61 60 59 59 59 58 59 58 58 57 55 54 51 51 53 51 49 45 44 46 53
65 65 65 64 63 63 62 64 62 61 60 61 61 58 58 59 57 57 56 57 55 55 56 53 51 49 51 52 49 47 41 41
64 64 63 63 64 63 63 60 59 59 59 57 57 57 56 56 56 56 55 55 54 53 52 50 51 49 48 48 47 47 47 41
61 64 61 62 62 61 60 59 58 60 59 59 58 58 57 56 55 55 54 54 52 52 51 50 49 49 49 48 46 43 43 39
62 63 61 60 60 60 60 60 59 59 59 58 57 57 57 57 54 53 53 52 51 51 50 49 49 47 47 47 47 46 45 42
62 62 60 59 59 60 60 59 59 57 55 55 55 55 54 53 52 52 51 51 51 50 50 49 48 47 46 46 45 45 46 44

GFSFLT2_sfc_temp_036.txt.gz
Temp
81 81 76 70 70 70 70 70 70 70 71 71 70 70 70 70 71 71 71 71 70 69 69 68 68 67 67 66 65 67 83 84
84 83 83 81 79 69 69 69 70 70 70 69 69 69 70 70 70 70 69 69 69 68 67 67 67 66 66 65 66 68 83 84
83 83 82 82 82 76 70 69 69 69 71 69 70 82 80 79 67 68 68 68 67 67 67 67 68 67 67 67 68 82 82 83
78 78 78 78 81 79 79 79 81 81 81 79 83 80 81 79 71 67 67 67 67 67 68 69 74 81 81 74 80 78 81 81
80 77 77 78 79 81 82 82 81 81 78 80 79 80 80 82 80 81 79 72 80 78 79 79 75 76 77 76 77 78 79 79
79 78 76 77 81 81 80 82 81 82 81 78 79 80 77 79 80 79 77 78 76 77 77 74 74 74 74 74 74 75 77 77
79 78 77 77 77 79 80 80 81 78 78 75 78 79 75 76 75 78 76 78 76 75 75 75 74 74 74 73 73 73 73 75
79 78 78 79 77 76 76 76 76 74 69 68 69 76 74 75 74 74 74 75 74 74 72 72 73 72 72 71 71 72 72 71
77 76 77 74 73 73 71 70 69 67 67 67 70 72 72 72 72 71 71 72 72 72 71 72 72 72 71 71 72 71 71 70
74 70 70 69 67 66 67 62 63 65 66 67 67 68 69 69 70 69 69 70 70 70 69 68 69 69 68 70 71 71 70 69
71 70 69 68 67 58 57 58 62 67 68 69 67 67 68 69 69 68 68 69 68 67 67 66 65 65 66 68 68 68 69 70
71 71 67 60 57 60 61 63 64 66 67 67 68 69 69 70 69 67 69 68 67 65 63 65 64 63 64 65 65 67 68 67
71 67 59 59 59 60 62 62 64 68 71 69 69 70 69 69 70 68 67 65 63 63 63 62 62 63 60 62 64 65 63 64
68 68 65 67 69 71 74 72 72 72 71 69 69 68 69 68 67 67 66 65 63 62 61 60 62 62 55 56 54 59 64 62
71 73 73 74 74 73 72 70 69 70 69 70 69 68 69 68 67 66 64 64 63 61 61 58 56 60 58 54 49 49 53 59
77 76 76 74 73 73 71 74 71 72 70 70 71 67 68 67 66 64 63 63 62 62 62 58 57 54 57 58 56 53 47 46
75 74 74 73 72 73 72 70 70 70 69 67 68 69 66 66 65 64 63 63 62 60 58 57 57 53 53 53 51 50 49 44
71 72 72 72 72 70 69 67 67 68 69 67 68 67 67 66 65 63 62 61 60 59 58 54 54 53 51 50 48 46 46 44
71 72 70 70 70 70 69 67 67 66 65 65 63 64 64 63 62 61 61 60 59 58 56 54 53 52 50 49 50 48 48 45
71 72 70 69 68 67 67 66 69 68 65 64 63 62 62 61 60 60 60 59 59 57 56 55 54 52 49 48 48 48 49 48

GFSFLT2_sfc_temp_039.txt.gz
Temp
79 79 75 71 70 70 70 70 71 71 71 71 71 70 70 71 71 71 71 71 70 69 69 68 68 68 67 67 67 68 80 85
80 80 79 77 76 69 70 70 70 70 70 70 69 70 70 70 70 70 70 69 69 69 68 68 68 68 68 68 68 69 83 84
84 85 84 83 81 75 70 70 70 70 70 70 69 81 79 78 68 68 68 68 68 68 68 69 69 68 69 70 69 81 81 82
82 81 80 81 83 78 79 77 79 80 80 78 81 81 80 79 72 68 68 68 68 69 70 71 74 81 81 76 80 78 80 80
82 79 78 80 80 82 83 82 81 80 80 81 80 81 80 80 80 79 80 72 81 78 80 80 77 77 77 76 76 77 79 79
82 81 79 81 82 83 83 83 82 82 81 79 80 79 78 79 82 81 79 80 77 78 78 76 76 76 76 75 74 75 77 76
81 79 78 79 80 81 82 81 78 76 75 76 77 77 77 79 78 79 77 78 77 76 76 75 74 75 75 74 73 73 74 75
80 80 80 80 79 78 75 75 74 74 73 70 72 73 74 78 77 77 75 74 73 73 71 72 73 74 73 73 72 73 73 73
80 79 80 77 76 75 72 72 75 71 69 68 70 71 70 73 70 69 69 71 71 72 71 72 72 73 71 72 72 72 73 72
79 77 75 72 70 68 67 69 68 66 68 68 68 70 70 69 68 68 69 70 71 70 70 69 69 69 68 69 70 71 70 70
74 73 71 68 64 59 58 58 60 68 68 68 67 68 69 69 69 68 69 70 69 68 68 67 66 66 67 67 68 69 68 71
75 73 70 68 65 64 57 56 62 67 67 67 69 70 70 71 70 68 69 69 67 66 64 66 65 65 66 64 66 67 69 67
73 69 69 67 65 65 61 62 65 67 69 71 71 72 71 70 71 69 68 68 65 65 64 62 62 64 61 61 61 65 67 67
71 71 70 73 73 73 72 71 71 74 73 72 73 71 71 71 68 68 67 66 65 64 62 60 61 62 57 57 52 56 63 64
75 73 75 76 76 77 76 76 74 72 72 71 71 71 71 70 68 67 66 66 64 63 62 60 57 59 60 55 49 48 53 58
77 78 78 77 77 76 73 73 72 73 73 74 72 70 70 70 69 67 65 65 63 63 64 60 58 55 58 59 57 54 47 44
78 79 79 77 77 76 74 73 74 74 73 70 69 70 70 69 68 66 64 64 63 61 60 57 58 56 54 51 51 52 52 46
77 78 77 76 75 75 73 71 70 68 69 68 69 70 69 69 68 66 64 62 62 61 61 59 57 55 53 50 50 47 47 46
74 76 74 74 73 73 72 70 68 67 68 68 66 66 66 65 64 62 62 61 60 60 59 58 56 52 52 52 50 49 49 48
74 74 72 73 72 71 70 69 68 68 68 66 65 64 64 63 62 61 60 60 60 59 59 58 56 52 51 52 52 50 51 50

GFSFLT2_sfc_temp_045.txt.gz
Temp
69 69 71 69 69 69 69 70 70 70 70 70 70 70 70 70 70 70 70 70 70 70 69 69 69 69 69 69 68 69 65 64
67 68 69 68 69 69 69 69 69 69 69 69 69 69 69 69 69 69 70 70 70 70 69 69 69 69 68 67 68 68 65 62
67 68 69 67 68 69 69 69 69 69 69 69 66 67 68 68 68 69 69 69 69 69 70 69 68 68 67 67 67 64 64 61
67 69 68 69 72 67 66 69 67 66 67 66 66 66 66 69 67 68 69 68 69 69 69 69 68 65 64 65 62 63 62 61
68 70 68 69 68 67 67 66 65 66 67 66 66 67 66 64 62 64 62 66 64 66 65 64 64 62 62 61 62 61 59 60
71 71 70 69 69 68 68 67 65 65 65 66 65 65 63 64 64 66 63 62 61 60 59 61 61 63 62 61 60 59 59 59
69 69 69 69 66 65 66 64 65 65 64 65 64 63 62 63 61 60 60 60 60 59 58 59 59 60 60 60 60 60 59 58
67 67 67 67 65 65 65 64 64 64 63 63 64 63 61 61 60 60 60 60 59 57 57 56 56 57 58 58 58 57 58 57
66 65 66 65 64 64 63 64 63 63 61 62 62 62 59 59 58 57 58 58 57 56 56 55 54 56 55 56 56 56 56 56
68 69 64 63 61 59 59 58 60 60 59 59 61 62 60 58 57 56 56 56 55 54 53 52 51 51 50 50 51 54 54 55
64 63 61 60 59 58 57 57 56 57 57 58 61 60 60 59 56 55 55 54 53 54 52 51 49 49 53 51 50 50 52 56
63 62 59 58 57 57 56 55 55 55 55 56 59 60 60 57 56 55 55 54 52 52 51 50 49 48 55 52 49 49 49 47
62 60 59 58 56 54 53 52 53 54 56 58 59 59 59 56 55 54 54 52 52 51 49 49 48 47 45 45 46 48 50 47
61 61 60 59 58 57 57 54 55 56 57 57 59 59 59 58 55 53 53 52 51 50 49 47 46 46 43 41 39 44 45 48
61 62 61 61 61 60 58 56 55 54 55 55 57 60 60 58 56 54 53 51 49 48 48 47 44 45 46 43 37 34 37 43
63 63 62 63 65 61 57 55 55 56 56 56 57 59 59 59 57 54 52 51 50 48 51 46 44 42 43 49 42 40 34 33
63 64 63 64 66 63 60 56 56 56 57 57 57 59 60 58 54 51 51 49 48 47 46 45 44 42 41 40 40 39 39 35
63 64 65 64 63 61 59 58 58 58 59 58 58 57 55 53 53 50 49 48 47 45 45 44 43 42 42 41 40 40 40 39
62 62 64 64 61 60 59 57 56 55 56 57 55 51 49 51 50 48 47 47 47 46 44 43 43 40 40 41 44 43 43 42
65 67 68 65 61 59 58 57 54 54 55 54 53 52 52 50 49 48 48 48 46 45 44 42 42 40 40 41 41 44 41 43

GFSFLT2_sfc_temp_048.txt.gz
Temp
65 67 70 69 69 69 69 70 70 70 70 70 70 70 70 70 70 71 71 70 70 70 69 69 70 69 69 67 67 66 60 61
65 66 67 67 68 68 68 68 69 69 69 69 69 69 69 70 69 70 70 70 70 70 69 69 69 68 67 66 66 66 59 59
65 65 66 66 67 69 69 69 69 68 69 68 67 66 66 66 67 69 69 69 70 69 69 68 67 66 67 66 65 60 59 58
65 66 66 67 70 66 66 69 66 65 66 65 65 64 65 67 67 68 69 68 68 68 67 66 65 62 61 63 59 60 59 57
65 66 66 65 67 64 63 63 63 64 65 63 63 65 63 61 61 62 61 65 63 63 62 61 61 59 59 58 58 57 54 56
67 67 65 63 66 64 64 65 63 63 64 65 62 62 62 61 60 60 60 59 58 58 57 58 58 59 58 57 57 55 54 55
68 68 66 65 64 63 63 63 63 63 62 63 63 61 59 60 60 59 58 58 57 56 56 56 55 57 56 56 56 55 55 54
68 67 64 65 63 63 62 63 62 61 61 61 62 61 60 59 57 57 56 56 55 54 53 52 52 53 54 54 54 54 54 54
67 63 63 62 61 63 61 61 61 59 60 60 60 60 58 57 56 55 55 55 54 53 52 52 51 53 52 52 52 52 52 52
65 67 62 61 59 59 59 58 58 58 58 58 59 59 58 56 55 54 54 53 52 51 50 50 49 48 48 47 49 51 51 52
62 62 61 60 58 57 56 57 56 56 56 57 58 58 57 56 55 53 52 52 51 52 49 48 47 47 50 47 47 48 47 53
62 61 60 57 56 56 54 54 54 54 55 56 58 57 58 54 53 52 52 51 50 49 48 48 47 46 53 50 46 47 46 46
61 59 57 57 55 53 52 52 53 53 54 57 57 57 56 54 52 51 51 51 49 50 48 47 46 44 43 43 44 44 46 45
60 59 58 57 57 54 55 53 53 54 54 55 56 56 55 55 52 51 51 50 49 48 46 44 44 44 42 39 38 41 42 46
60 59 59 58 58 57 54 54 52 52 52 53 55 56 57 55 53 51 51 49 48 46 45 44 42 42 43 42 36 33 35 40
60 60 59 59 58 57 55 53 53 52 52 53 54 56 56 56 54 51 49 48 47 47 47 43 42 40 41 46 40 39 34 34
60 60 60 61 60 59 56 52 53 53 52 53 53 54 55 54 51 49 48 47 47 46 43 42 41 40 39 38 38 37 36 33
60 60 60 60 60 59 57 55 54 53 52 52 52 51 50 52 51 48 47 47 46 45 42 42 41 39 38 38 38 37 36 39
60 60 60 61 60 60 57 56 54 55 54 53 50 50 51 51 50 48 48 47 45 43 41 40 39 38 38 38 39 39 41 42
61 61 61 60 59 57 55 55 54 52 54 54 53 51 49 50 48 49 48 46 43 42 40 40 39 38 38 37 38 38 39 38

GFSFLT2_sfc_temp_051.txt.gz
Temp
65 66 69 69 69 69 69 70 70 70 70 70 70 70 70 70 70 71 71 70 70 70 70 69 69 69 68 66 65 65 59 59
63 66 66 67 68 68 68 68 69 69 69 69 68 68 69 69 70 70 70 70 70 70 69 68 68 67 66 65 64 63 57 57
62 64 65 66 66 68 68 69 68 68 68 68 66 64 64 65 68 69 69 69 69 68 67 66 65 65 65 64 63 57 57 56
61 63 64 65 69 66 65 67 65 65 64 64 64 63 63 66 66 68 68 68 67 66 66 65 63 59 59 61 56 56 55 55
62 63 65 64 65 63 62 62 62 63 64 63 63 63 61 61 60 60 59 63 61 61 60 59 58 57 56 55 55 54 51 53
64 65 64 62 62 61 61 63 62 62 62 63 61 61 59 59 59 59 58 57 56 56 56 56 55 56 55 54 53 51 51 52
63 64 64 63 62 60 61 61 62 62 62 63 62 61 59 58 57 57 56 56 55 54 53 54 53 53 53 53 52 52 52 51
65 64 64 63 61 61 61 62 62 61 60 61 61 59 57 57 56 55 54 54 53 52 52 51 50 51 51 52 51 51 50 50
65 64 63 62 61 61 61 61 60 59 59 59 59 57 57 56 54 55 53 53 52 51 50 50 50 51 49 50 50 49 50 49
66 66 62 60 60 59 59 58 58 58 57 57 57 57 57 54 54 53 52 51 51 50 49 48 47 47 46 47 48 48 49 49
63 61 59 58 57 56 56 57 56 56 56 56 57 57 56 55 53 51 51 50 49 51 47 48 46 45 48 46 47 45 47 50
61 60 58 57 56 55 54 54 54 54 54 55 56 56 56 53 51 50 50 49 48 48 47 46 45 45 50 49 45 43 44 43
59 58 56 57 56 54 52 52 52 52 53 55 56 56 55 52 50 50 50 49 48 48 46 46 44 43 42 41 41 42 43 43
58 59 57 58 58 53 54 52 52 52 53 54 55 55 54 53 51 50 49 48 47 46 45 43 42 42 41 37 36 39 41 43
59 59 58 58 57 55 52 52 51 51 51 52 53 54 54 53 51 50 48 47 46 45 44 44 41 42 43 41 35 32 34 39
60 59 58 58 58 56 53 52 50 52 51 51 52 54 54 53 51 49 47 46 45 45 45 42 43 40 40 44 39 38 33 32
58 58 58 59 58 57 54 51 52 51 51 52 51 51 51 52 50 48 46 46 44 44 43 42 41 38 37 37 36 35 34 32
57 58 58 59 58 56 54 53 51 51 50 49 49 48 48 48 49 49 49 48 44 43 42 41 39 37 37 36 36 36 35 34
59 58 58 58 58 56 55 53 53 52 52 51 47 46 46 48 48 47 48 47 46 43 41 39 39 37 37 38 38 37 38 38
60 58 59 58 58 57 56 54 54 52 51 50 49 49 48 47 47 47 48 47 46 43 40 38 38 37 37 36 36 36 37 37

GFSFLT2_sfc_temp_054.txt.gz
Temp
63 65 66 69 69 69 69 70 70 70 71 71 70 70 70 71 71 71 71 71 70 70 69 69 68 67 66 65 65 65 57 59
62 63 65 66 68 68 68 68 69 69 69 69 68 68 69 69 69 70 70 70 70 69 68 67 67 66 65 64 63 62 56 57
63 61 63 65 66 68 68 69 68 68 68 68 65 63 64 65 68 69 69 69 68 67 66 65 64 64 64 63 60 54 55 56
63 64 65 65 68 64 64 67 64 64 64 63 63 62 61 65 66 67 68 67 66 66 65 64 61 57 57 58 53 54 54 55
62 65 64 65 64 63 63 63 60 61 62 62 62 62 60 60 59 60 59 62 59 59 59 57 56 55 54 52 52 52 51 52
61 62 62 63 63 61 61 62 61 60 61 62 61 59 58 59 59 58 57 55 55 54 54 54 53 54 53 52 51 50 50 51
61 61 61 61 61 61 61 60 61 60 61 62 61 59 57 57 56 56 55 54 54 52 52 52 51 51 51 51 50 50 50 50
62 62 61 61 60 59 59 60 61 61 61 61 61 59 57 56 55 54 53 52 52 51 50 49 49 50 50 50 50 50 49 49
63 62 61 60 60 60 59 60 60 59 59 59 59 57 56 54 53 52 51 51 51 52 49 49 49 50 49 49 49 49 49 48
62 64 60 59 59 58 58 59 58 58 57 56 56 57 56 53 53 51 51 51 51 49 48 48 47 47 46 47 47 48 48 48
60 59 58 58 57 56 57 57 57 56 56 56 56 56 55 54 55 52 50 50 48 50 47 47 46 45 47 46 45 45 46 50
59 58 57 56 55 54 54 54 54 54 54 54 55 55 54 52 51 50 50 48 47 47 47 45 45 44 49 48 43 44 44 44
59 57 56 56 56 54 52 52 52 52 54 55 55 54 53 52 50 49 48 48 47 47 45 45 43 43 43 42 42 42 43 43
58 58 56 57 57 53 54 52 52 52 53 53 54 54 53 52 50 48 48 47 46 46 45 43 42 42 41 38 37 40 42 43
59 58 57 57 56 54 51 52 51 51 50 51 52 53 53 52 50 48 47 46 45 44 44 44 41 41 42 40 35 34 35 39
59 58 57 57 56 55 53 52 50 51 51 51 52 52 52 51 49 48 46 45 44 44 45 42 41 40 40 43 40 39 35 33
59 58 57 57 56 56 54 52 52 51 51 51 50 50 50 50 48 46 45 44 43 43 43 42 40 40 38 38 37 36 35 34
56 57 57 57 57 56 54 53 52 51 49 50 48 47 47 47 47 45 46 45 44 45 44 43 41 39 37 37 37 36 35 34
57 57 57 57 57 56 55 54 54 52 51 51 47 45 44 45 46 47 47 46 45 43 44 43 41 39 38 38 37 38 38 37
57 57 59 57 58 57 55 56 54 52 51 50 48 47 45 47 44 45 46 47 46 45 43 42 41 38 36 36 38 37 37 37

GFSFLT2_sfc_temp_057.txt.gz
Temp
62 62 63 64 68 69 70 70 71 71 71 71 70 70 70 71 71 71 71 71 70 70 69 68 68 67 66 65 64 65 74 74
62 60 61 63 66 67 68 68 69 69 69 69 68 69 69 70 70 70 70 70 70 69 68 67 66 65 65 64 63 65 73 73
62 61 62 64 67 69 69 69 68 68 69 67 68 74 74 74 69 69 69 68 68 67 66 65 64 64 63 63 65 71 72 72
62 63 64 65 67 66 66 69 69 69 69 70 73 71 73 73 70 67 67 67 66 66 65 64 67 70 69 66 69 68 70 70
65 66 67 67 67 66 70 70 70 70 68 70 70 70 70 70 70 70 69 66 70 69 67 68 66 68 67 66 66 67 69 70
64 64 65 66 69 69 69 70 70 70 68 69 68 68 67 68 68 67 65 66 65 66 66 64 64 63 64 64 64 67 67 68
66 67 67 68 67 68 68 68 70 67 67 68 67 66 66 68 65 66 65 66 65 65 65 64 64 64 64 64 64 63 64 67
68 68 68 69 68 68 67 68 68 68 68 68 67 66 65 65 65 66 65 66 66 66 66 65 64 64 63 63 63 64 64 63
68 68 68 68 68 68 68 69 68 68 69 68 68 67 66 64 64 64 64 63 62 63 63 64 64 65 62 63 64 63 63 62
69 69 67 68 67 68 68 69 69 69 68 67 66 65 64 62 62 62 62 63 61 60 64 63 63 64 63 63 62 63 61 61
68 68 67 67 67 67 66 66 66 67 66 65 64 64 63 62 63 61 61 62 63 63 62 62 62 62 64 64 62 63 61 63
69 68 67 66 65 64 65 65 66 65 66 64 64 64 63 64 64 57 63 61 61 62 61 60 61 62 61 62 60 61 61 61
68 66 65 64 63 61 60 60 62 63 63 64 63 65 64 63 61 58 62 62 61 60 59 58 59 59 60 60 59 57 57 59
66 66 65 66 68 66 66 64 63 64 63 63 64 64 64 63 59 61 62 61 59 59 59 57 58 58 57 55 54 55 56 57
66 67 66 66 67 65 63 62 62 61 61 62 63 63 63 61 60 61 60 61 59 58 58 57 56 56 54 55 52 51 52 56
68 67 66 65 64 64 62 64 62 62 61 62 63 59 58 60 61 60 59 60 58 57 57 57 56 54 54 55 54 53 50 48
66 66 66 66 64 65 62 62 64 60 59 60 60 61 61 61 60 58 58 58 56 56 54 54 55 53 53 52 51 52 51 48
65 65 65 65 64 63 62 62 60 57 57 56 58 60 59 59 59 58 57 56 55 52 50 48 47 53 50 48 50 50 51 48
65 66 65 64 63 62 60 59 60 60 59 55 59 57 57 57 57 55 56 55 53 48 46 46 46 47 49 51 52 51 51 49
65 65 66 64 62 62 59 59 61 61 58 55 56 57 59 57 55 55 54 53 48 44 44 44 45 50 49 49 51 51 50 49

GFSFLT2_sfc_temp_060.txt.gz
Temp
61 61 64 65 66 68 69 70 71 71 71 71 71 71 71 71 71 71 71 71 70 70 69 68 68 67 66 65 65 68 81 81
61 59 60 61 63 66 68 68 69 69 69 69 69 69 70 70 70 70 70 70 69 69 68 67 66 66 65 64 66 69 80 81
62 62 62 61 63 66 68 68 68 68 69 68 70 76 78 77 71 69 69 68 68 67 66 65 64 64 64 65 68 80 80 80
63 65 63 62 66 68 70 71 74 72 73 75 78 76 79 78 71 67 67 67 67 66 66 66 72 79 76 70 78 76 78 79
63 63 64 68 70 68 70 73 72 72 72 76 76 77 77 77 74 75 73 71 75 73 74 78 74 76 74 74 75 76 78 79
62 66 68 68 69 68 69 73 73 74 75 76 76 77 76 76 77 76 75 77 74 75 74 71 71 71 72 71 71 75 76 77
66 65 65 68 71 75 75 74 75 75 76 75 77 76 74 76 76 76 76 75 74 73 72 73 72 72 72 71 71 71 72 76
65 68 71 75 75 74 75 75 76 76 77 76 74 75 74 75 73 74 74 76 75 74 73 73 73 72 70 70 70 72 71 71
72 74 75 75 75 75 77 76 77 77 77 75 74 75 73 74 74 73 73 73 72 72 72 72 73 74 70 71 73 70 70 70
75 76 75 75 75 76 78 78 77 78 77 77 74 74 74 72 70 70 72 71 72 71 72 72 72 73 72 74 73 72 69 69
75 75 75 75 75 77 76 76 77 79 78 77 75 74 71 70 72 71 69 71 68 70 71 71 70 72 73 73 72 72 68 71
77 76 75 75 75 75 76 76 77 78 77 77 74 72 70 71 71 70 70 71 70 70 68 70 71 72 71 70 70 69 69 68
76 76 75 75 74 74 74 73 75 76 77 74 72 71 70 70 71 69 70 70 68 68 68 66 67 69 67 68 67 65 64 67
76 77 77 76 77 77 76 75 76 77 76 73 73 71 70 70 71 69 66 70 67 67 66 66 67 67 64 63 62 64 64 64
77 78 77 77 78 78 77 76 75 73 73 68 70 70 71 71 68 67 66 69 67 66 66 65 64 64 62 60 60 59 61 66
77 78 78 77 77 77 73 74 72 74 73 70 71 70 70 71 66 65 65 68 68 66 67 66 64 61 59 57 60 61 57 56
76 77 77 77 76 75 74 72 76 76 71 69 67 67 66 66 66 62 63 68 67 66 64 63 59 54 53 56 57 60 58 54
75 75 76 77 75 73 73 72 73 69 68 67 67 67 66 66 64 62 64 67 65 64 62 57 56 49 49 52 53 56 57 56
75 76 76 76 74 73 72 72 70 66 66 68 66 64 62 59 60 60 66 66 64 61 55 54 49 47 48 54 53 57 59 57
75 74 75 76 73 72 72 71 69 65 64 65 67 60 56 57 58 64 66 63 55 55 48 55 54 48 51 49 52 57 58 57

GFSFLT2_sfc_temp_063.txt.gz
Temp
63 63 64 65 67 67 69 70 71 71 71 71 71 71 71 71 71 71 71 71 70 70 69 68 68 67 67 67 67 69 82 82
61 62 61 60 60 65 67 69 69 69 69 69 69 69 70 70 70 70 70 70 69 69 67 67 66 66 66 66 68 70 82 82
60 60 61 62 62 63 66 69 68 68 69 69 70 73 75 75 70 69 69 68 68 67 67 65 65 65 66 67 67 80 81 81
60 61 61 63 66 65 68 70 71 74 74 73 76 73 75 74 69 67 67 67 67 67 66 66 68 78 76 71 78 78 79 79
63 63 63 65 64 64 67 69 71 73 74 76 73 74 72 73 72 73 72 70 74 73 71 76 76 77 76 75 76 77 78 79
60 61 61 63 66 67 69 70 72 74 75 75 74 73 74 74 76 76 74 76 74 76 75 73 73 74 73 73 73 75 75 77
59 61 60 64 66 66 67 70 74 76 75 75 75 76 74 76 76 76 76 77 76 75 73 74 72 73 73 73 72 72 74 77
63 64 65 67 68 73 74 76 77 76 75 75 76 77 75 76 75 76 76 76 76 76 75 74 74 73 71 72 72 73 72 74
62 65 69 69 72 75 77 77 78 76 77 77 76 76 75 76 75 75 75 77 76 75 74 74 74 75 72 72 73 72 72 72
70 74 73 74 76 78 78 78 77 77 78 77 75 76 75 75 75 74 74 74 74 73 73 73 74 74 72 73 73 73 71 71
72 76 76 77 77 77 77 77 77 78 79 79 76 76 75 75 74 73 72 73 73 72 73 73 71 72 73 72 72 72 70 73
76 76 76 76 76 77 78 78 78 80 79 80 77 74 73 73 74 72 71 73 71 72 71 72 72 72 73 72 71 71 71 70
76 76 76 77 77 76 76 75 77 78 80 80 78 74 72 71 74 72 70 72 71 71 70 68 69 70 68 68 69 68 66 68
77 78 78 78 80 79 79 79 79 80 80 79 76 72 72 71 72 72 69 71 70 68 68 67 69 69 65 66 62 65 66 66
79 80 80 80 80 81 80 80 79 78 78 78 73 72 72 71 72 70 69 70 68 66 67 67 66 67 65 63 59 54 60 67
80 81 82 81 80 80 77 76 75 77 77 78 72 72 71 72 71 70 69 69 66 65 68 68 67 64 64 63 57 54 53 54
80 80 81 82 80 79 78 76 77 79 78 76 69 70 71 70 68 64 65 67 65 62 65 66 67 65 56 54 53 55 60 54
79 79 80 81 81 78 77 76 76 77 77 72 70 69 69 69 68 64 64 63 61 60 65 65 61 57 51 56 51 52 56 52
80 79 79 80 79 78 76 76 76 74 75 71 68 68 65 66 65 63 61 58 58 60 64 61 52 53 53 54 54 58 55 56
80 79 78 79 77 77 77 76 76 76 67 62 65 65 66 67 66 62 56 56 57 59 58 50 53 49 47 48 50 54 56 58

GFSFLT2_sfc_temp_069.txt.gz
Temp
63 64 65 65 63 66 68 70 70 71 72 72 71 71 71 71 71 71 70 70 70 69 68 68 68 68 68 67 66 68 65 65
61 62 62 62 62 64 64 68 67 69 70 70 69 69 70 70 70 70 70 70 69 69 68 68 68 68 67 67 67 67 63 63
59 60 61 61 61 63 65 69 68 66 68 68 67 68 68 68 68 68 69 68 68 68 68 67 67 67 68 68 66 63 62 62
59 59 59 61 63 62 63 65 65 65 65 64 67 66 66 67 67 67 68 67 67 67 67 66 66 61 61 64 60 61 61 59
59 60 61 61 61 63 64 63 64 66 66 67 65 65 64 63 64 63 61 65 63 63 63 62 62 60 60 60 60 59 56 58
58 59 60 60 60 63 63 63 66 65 65 65 63 63 62 63 62 62 61 61 60 60 59 61 60 62 62 61 60 57 54 55
59 60 59 60 61 61 62 62 66 65 66 65 62 63 62 63 62 61 62 62 61 60 61 62 61 61 61 61 61 59 58 57
59 60 59 61 61 61 62 63 65 65 66 65 65 63 64 62 61 62 62 63 63 61 61 60 59 60 60 61 60 60 58 57
59 59 60 60 61 63 63 63 66 65 65 66 65 64 63 62 62 62 62 63 63 61 60 59 59 61 60 60 60 60 58 58
61 63 61 61 61 63 65 65 65 65 64 64 65 66 65 63 63 62 63 62 61 60 59 59 58 58 57 57 58 58 59 59
60 61 61 61 63 65 65 65 63 64 62 63 65 65 65 63 63 62 62 61 60 61 59 59 57 56 57 56 56 56 58 63
61 63 61 61 64 62 61 61 62 63 62 64 64 64 65 64 62 61 61 60 59 59 59 58 57 57 64 60 55 55 55 54
61 61 62 61 60 60 62 61 60 60 61 65 63 63 63 62 60 60 59 60 59 58 57 57 56 56 54 52 52 53 54 53
62 63 63 63 65 65 61 64 60 61 63 63 66 63 63 62 61 60 59 58 58 57 57 55 58 55 52 51 47 50 51 54
63 64 65 66 67 64 62 61 61 62 61 65 63 65 65 63 61 60 59 58 58 56 56 55 57 56 55 54 47 44 46 50
66 67 67 67 67 67 65 65 63 64 63 62 64 65 64 64 64 62 60 60 58 56 58 58 56 54 54 55 52 50 44 43
67 68 68 68 68 68 66 64 64 62 62 64 62 64 65 64 63 61 58 59 58 58 57 56 54 52 49 48 47 46 48 45
68 68 68 69 69 68 68 68 62 62 62 62 63 62 63 63 64 62 59 58 57 55 54 54 52 49 47 47 46 45 46 46
68 69 68 69 69 69 67 68 62 63 61 63 60 61 63 62 61 57 57 55 54 54 54 51 49 47 46 46 46 46 47 45
69 69 69 70 69 70 69 67 66 62 64 62 63 62 62 59 57 55 55 54 53 53 50 47 47 46 46 45 45 45 46 46

GFSFLT2_sfc_temp_072.txt.gz
Temp
63 64 65 66 65 65 68 69 71 72 72 72 72 71 71 71 71 71 70 70 70 70 69 69 69 68 67 66 65 65 61 62
61 62 62 62 62 63 63 66 69 70 71 70 69 69 69 69 69 69 69 69 69 69 69 68 68 67 67 66 65 65 58 58
61 61 61 61 62 63 63 64 68 68 68 68 67 68 67 67 68 68 69 69 69 68 68 66 65 66 66 65 64 59 58 57
59 60 61 62 63 61 61 63 63 64 64 63 65 65 66 67 67 67 68 68 68 68 67 65 63 59 59 63 58 58 57 57
58 59 61 61 62 63 62 62 62 62 63 64 65 65 65 63 64 62 62 65 63 63 60 59 59 58 57 56 56 56 55 57
59 60 59 60 62 62 63 63 63 63 63 64 63 61 59 59 61 59 60 60 59 58 58 58 58 59 59 57 56 55 54 55
59 59 59 60 60 61 62 62 65 65 64 63 63 61 59 59 59 59 60 59 59 59 58 58 58 59 59 59 57 56 56 56
59 59 60 61 61 62 62 64 64 66 65 63 62 61 60 60 60 60 60 59 60 59 60 59 58 59 59 59 58 56 56 56
58 59 60 61 62 63 64 67 65 66 65 64 63 61 59 60 59 58 59 59 60 59 58 58 57 59 58 58 57 57 56 56
60 61 60 60 62 65 64 65 65 66 65 63 63 62 61 60 61 59 60 60 59 58 57 56 55 56 55 55 55 56 56 56
60 60 60 60 62 60 62 63 63 65 64 63 62 63 63 61 61 60 59 59 57 58 56 56 54 54 55 53 54 55 55 59
60 60 60 62 62 61 61 62 62 63 62 62 63 63 62 61 60 59 58 58 57 57 57 56 55 54 61 58 52 53 53 52
60 60 61 61 62 60 61 61 57 58 59 62 61 61 62 60 60 58 58 59 58 57 56 55 54 53 53 51 50 51 51 51
58 59 59 59 61 61 62 59 57 62 60 61 63 61 61 60 59 59 57 57 56 55 55 53 54 53 51 53 50 51 49 51
58 60 60 61 61 60 58 58 58 58 57 59 61 62 62 62 60 59 58 56 56 54 54 54 52 53 55 53 47 47 48 51
60 62 62 62 62 63 60 63 60 63 60 60 60 62 62 63 62 59 57 56 55 55 55 54 54 53 51 50 48 48 45 46
61 62 63 64 64 64 62 61 62 59 58 59 60 61 62 63 62 60 58 58 57 56 54 54 54 52 50 46 46 46 46 44
61 61 63 64 64 64 63 63 58 58 60 59 57 60 62 62 62 62 60 57 56 56 55 55 53 52 49 48 47 46 45 44
62 62 62 65 65 64 63 63 58 61 60 61 60 60 60 61 61 59 57 57 55 55 54 54 52 51 50 48 48 47 47 46
63 63 64 65 65 65 65 64 65 62 63 63 62 62 62 63 61 59 56 56 54 53 53 50 49 49 48 47 47 46 47 47

GFSFLT2_sfc_temp_075.txt.gz
Temp
64 65 65 66 67 67 68 67 69 70 72 72 71 71 71 71 71 70 70 70 70 70 69 68 68 67 67 65 65 64 58 59
61 62 63 62 63 66 68 68 68 70 70 70 69 69 69 70 69 70 70 70 70 69 68 68 68 66 66 65 64 63 57 57
61 61 61 61 62 65 65 67 67 68 70 68 67 67 67 65 68 68 69 69 68 68 67 66 66 66 65 64 63 58 57 56
60 60 61 62 64 62 62 64 64 66 68 65 65 64 64 65 67 68 68 68 68 67 66 65 64 63 62 62 56 56 55 56
59 60 61 61 61 63 62 62 62 61 63 64 65 64 64 63 63 63 62 64 61 61 61 61 58 58 55 54 55 55 54 56
59 60 59 59 62 62 63 61 61 61 62 65 63 61 60 59 59 59 57 56 57 58 57 56 57 56 56 54 54 54 54 55
59 59 57 58 60 61 61 61 62 61 62 64 64 62 60 59 57 57 56 57 57 56 56 57 56 56 56 55 55 55 56 56
59 58 58 59 59 61 62 62 63 63 62 63 62 61 60 58 57 57 56 57 57 56 57 56 56 56 55 55 56 56 55 55
58 58 59 60 61 62 63 64 64 65 63 62 61 60 58 57 56 56 57 57 57 56 57 56 55 58 57 55 55 55 54 54
59 60 60 60 62 63 64 63 65 65 63 62 60 60 59 57 57 57 57 57 56 56 55 54 54 55 54 54 54 54 54 54
59 60 59 59 60 62 61 62 64 64 63 63 61 60 60 59 58 57 57 57 57 57 55 55 53 53 53 52 51 53 54 57
59 59 59 59 59 59 60 61 61 62 63 62 60 60 60 58 57 57 58 57 56 56 56 54 54 53 58 56 51 51 51 51
59 58 58 59 58 58 58 58 59 60 62 61 60 61 60 59 57 56 57 58 58 57 55 55 52 51 51 50 50 50 50 49
59 58 59 61 62 62 62 61 59 60 58 59 61 59 59 59 58 58 57 57 55 54 54 52 52 51 50 50 49 49 49 51
58 58 58 60 64 61 60 60 59 57 55 56 58 60 59 59 58 57 55 55 55 53 54 54 51 52 54 53 47 47 49 49
57 58 58 59 59 59 59 57 56 57 57 57 58 59 59 59 58 57 56 55 53 55 54 53 52 50 50 49 48 49 46 46
56 57 60 61 60 58 57 56 57 56 56 57 56 58 59 60 59 57 57 56 57 56 54 52 53 53 50 46 46 47 47 46
56 57 58 60 60 58 58 56 55 55 55 56 55 57 58 59 59 59 59 58 55 55 55 53 52 52 50 49 46 46 45 45
56 57 58 60 60 60 59 59 56 57 58 59 57 56 57 59 59 59 59 59 57 56 55 54 52 51 50 50 49 49 48 47
58 58 59 61 61 61 61 61 61 60 61 61 59 58 59 60 59 60 60 58 57 56 55 54 52 52 50 49 49 48 48 47

GFSFLT2_sfc_temp_081.txt.gz
Temp
67 68 71 69 69 69 68 69 70 70 72 72 72 72 72 72 72 72 72 71 70 69 68 68 68 67 66 65 65 67 74 74
65 65 64 65 68 67 68 68 69 68 70 71 70 70 71 71 70 70 71 70 69 69 68 67 67 66 65 65 64 66 73 74
64 63 63 64 66 66 68 69 69 69 69 69 68 71 72 71 70 69 70 69 68 68 67 66 66 65 65 64 66 72 73 74
61 63 62 63 65 68 70 68 69 68 67 67 67 69 70 70 69 68 69 68 68 67 66 65 68 71 69 65 71 71 72 72
60 61 62 63 66 66 67 66 66 64 64 65 65 67 69 70 67 68 70 69 72 70 69 71 70 70 70 70 69 70 72 72
60 60 60 60 62 64 64 65 63 63 63 65 66 68 67 68 65 65 67 70 71 70 70 68 68 68 68 67 68 70 71 72
59 60 61 63 62 62 62 62 62 62 63 68 68 66 64 64 63 64 64 65 67 67 67 67 67 68 68 68 67 68 69 71
59 59 60 63 61 61 61 61 61 61 63 67 66 65 63 63 62 63 63 67 66 65 66 68 68 69 67 67 67 68 68 68
58 59 61 62 61 61 61 61 61 61 63 64 66 65 64 63 63 61 63 66 62 65 65 67 67 68 67 67 67 67 68 67
59 60 60 61 61 61 61 62 62 61 63 65 64 65 65 65 65 64 64 63 64 64 65 66 66 66 66 66 67 66 66 66
58 59 60 61 60 61 61 60 61 61 64 64 64 65 65 65 66 64 63 61 63 64 64 65 64 65 65 65 65 65 65 66
59 58 60 61 60 60 60 60 60 61 65 66 65 66 66 66 66 60 61 61 65 65 64 64 65 65 67 64 63 64 65 65
59 57 58 59 58 58 58 58 59 59 62 63 65 66 66 65 66 64 62 65 64 63 64 62 62 63 62 63 63 63 63 65
59 59 59 60 59 59 60 59 59 60 60 61 65 66 65 66 65 65 65 66 64 63 63 63 65 63 64 64 61 63 64 65
59 60 60 60 60 58 58 58 58 58 59 60 65 65 67 67 66 66 65 65 65 63 64 64 64 63 63 66 59 59 62 64
61 60 60 61 59 59 58 60 58 61 60 64 67 66 66 67 66 66 65 65 65 64 64 64 64 61 59 60 61 62 60 59
60 61 61 62 61 61 59 59 62 65 64 65 65 65 66 67 66 65 65 65 65 64 63 62 63 63 61 59 58 58 58 57
60 60 62 63 63 63 61 62 63 62 62 65 65 66 65 66 66 66 65 65 64 63 63 63 62 62 63 60 61 57 55 55
58 59 60 62 62 62 63 63 64 64 65 66 65 64 64 65 65 65 64 65 65 65 64 62 62 62 62 61 59 55 55 54
57 59 61 62 62 62 62 64 64 65 64 65 64 66 66 66 65 66 65 66 65 65 64 64 63 61 61 60 59 53 53 54

GFSFLT2_sfc_temp_084.txt.gz
Temp
68 71 73 68 69 69 69 69 69 69 69 70 72 72 72 72 72 72 72 71 70 69 68 68 68 67 67 66 67 69 82 82
68 69 71 71 71 67 68 69 69 70 69 69 69 70 71 71 71 71 70 70 69 68 68 67 67 66 66 65 66 69 82 81
67 66 70 68 71 68 68 68 68 68 69 69 68 71 74 73 73 69 69 69 68 68 67 66 66 65 65 65 66 81 81 82
64 64 65 69 71 69 68 69 68 68 67 69 68 68 71 76 71 68 68 68 67 67 66 65 68 75 73 68 80 79 81 80
62 62 63 63 65 67 71 73 69 68 66 66 68 66 69 73 73 73 71 70 75 72 70 77 77 77 76 78 77 78 80 80
64 62 62 62 66 66 69 73 68 68 63 64 64 64 67 71 75 74 73 76 74 75 76 77 76 77 76 75 76 79 80 79
64 63 62 61 62 68 68 68 65 64 63 63 63 62 64 68 72 73 74 75 75 76 77 76 75 75 76 75 75 76 77 78
63 63 63 67 65 63 63 63 62 62 62 62 62 62 65 67 70 69 73 73 75 76 75 75 76 76 75 75 75 76 76 77
62 62 63 65 66 62 62 61 62 61 60 61 64 66 68 69 69 69 69 71 71 74 74 74 76 77 74 75 75 75 76 75
63 63 62 65 62 62 62 61 61 60 61 62 67 68 69 69 69 66 69 70 69 70 72 74 75 75 74 75 75 75 74 74
62 62 62 63 61 62 61 62 61 61 63 67 69 68 68 68 68 68 69 67 68 72 73 74 71 74 74 75 75 75 74 75
62 61 60 63 61 61 61 61 60 61 66 68 68 69 67 71 72 69 73 71 71 72 71 72 73 73 75 73 73 75 75 74
59 58 62 63 59 59 59 58 59 60 63 65 66 71 71 72 73 72 73 71 72 71 72 69 70 71 71 71 68 71 70 72
59 59 59 60 62 61 60 60 60 61 63 65 66 66 68 72 72 71 70 69 68 69 70 69 71 70 67 68 65 68 70 71
60 60 60 61 61 60 59 60 60 59 62 62 66 68 70 71 70 71 68 73 71 70 69 70 69 70 69 70 65 64 70 73
63 61 62 62 62 60 58 58 58 61 64 64 65 69 70 73 73 72 72 73 72 71 72 71 70 68 69 71 71 71 67 62
64 62 62 62 62 60 59 58 62 64 63 62 63 67 70 72 73 72 72 73 72 71 71 69 71 69 71 71 68 69 68 66
65 62 62 61 62 62 61 61 60 60 61 61 66 71 73 72 74 72 72 72 71 71 71 70 69 70 70 70 69 67 67 66
64 63 62 62 61 62 64 63 62 60 65 64 65 72 73 72 72 71 72 71 71 71 70 70 70 69 69 69 70 69 70 64
63 63 62 63 63 64 66 68 65 65 64 64 71 72 73 72 71 71 72 72 71 71 71 71 70 69 68 69 69 69 66 64

GFSFLT2_sfc_temp_087.txt.gz
Temp
78 75 73 69 70 70 70 69 69 70 69 72 73 71 70 72 73 72 72 71 70 69 69 68 68 68 68 68 68 70 84 81
76 76 74 73 75 68 68 69 69 70 70 69 68 69 70 71 72 71 70 70 69 69 68 67 67 67 67 67 67 69 82 81
74 75 74 73 74 73 69 69 68 70 68 66 62 67 72 75 73 69 69 69 68 68 67 66 65 66 66 67 67 83 83 81
73 70 73 73 74 74 73 73 71 71 68 68 66 66 70 75 70 68 68 68 67 67 66 65 69 74 74 68 79 82 82 79
71 66 65 71 71 71 72 70 69 67 67 66 65 66 66 71 68 71 70 69 71 71 69 75 75 75 75 78 80 81 81 78
70 65 63 64 64 67 71 69 69 66 65 65 64 64 65 68 71 72 72 72 72 71 75 76 76 76 76 77 78 81 81 76
68 67 63 64 63 65 65 69 69 66 65 65 64 64 64 66 71 74 74 75 74 74 77 77 76 76 77 76 78 79 78 77
68 68 66 66 63 62 66 67 67 66 65 64 64 62 63 66 69 72 75 76 75 76 75 76 76 76 76 77 77 78 78 76
67 67 66 67 66 64 64 65 63 63 61 61 62 62 62 63 66 70 72 75 75 73 73 76 76 77 75 76 77 77 78 77
67 66 65 65 64 63 62 61 61 61 61 61 60 61 62 61 65 69 72 73 73 71 71 72 74 75 74 75 76 77 76 76
66 63 63 63 62 62 60 60 59 60 59 60 60 62 62 63 67 68 68 70 69 71 71 69 70 74 74 75 76 76 75 77
65 62 62 63 61 61 60 59 59 59 60 61 62 63 64 67 67 64 66 66 68 70 69 73 73 74 76 75 75 76 76 75
64 61 60 61 59 58 58 58 59 60 61 61 62 66 68 67 67 67 68 69 69 70 71 69 69 74 73 72 72 74 74 75
63 62 62 61 61 60 59 59 60 61 62 66 70 67 68 71 71 70 71 71 68 69 70 69 71 71 69 70 65 67 71 72
65 63 65 64 61 60 60 60 59 59 59 63 67 68 70 71 72 71 69 68 67 69 71 69 69 70 71 70 64 62 66 71
69 66 63 65 62 60 59 58 57 61 61 65 65 67 67 67 67 68 67 69 69 69 73 72 72 69 70 71 71 70 64 61
67 65 64 64 64 60 59 58 60 62 63 64 67 66 67 69 68 69 72 73 71 71 72 71 72 72 71 70 69 69 69 65
66 64 63 63 62 61 59 58 60 60 61 61 63 64 63 66 71 73 73 72 72 73 72 71 70 71 71 71 70 68 67 66
65 64 62 62 62 63 61 60 60 62 61 61 61 61 62 65 69 72 72 72 73 72 70 70 70 70 70 70 71 71 72 70
65 65 64 63 62 63 64 63 63 64 63 63 62 63 64 68 70 72 73 73 72 72 72 71 70 70 69 70 70 70 71 70

GFSFLT2_sfc_temp_090.txt.gz
Temp
74 74 71 71 70 70 69 70 67 69 69 66 67 68 69 70 71 72 72 71 70 69 69 68 69 68 69 68 68 70 75 72
75 74 70 71 69 70 69 68 68 68 69 68 67 68 70 70 70 71 70 70 69 69 68 68 68 68 67 68 68 68 74 72
74 73 71 70 71 69 68 69 68 68 68 68 66 66 69 68 68 69 69 68 68 68 67 66 66 66 67 67 66 73 73 70
74 70 71 70 73 68 70 69 68 67 66 64 65 64 66 68 69 68 68 67 67 67 66 66 68 66 65 66 67 74 71 68
73 68 67 69 68 68 67 67 66 66 65 65 64 65 65 66 65 66 66 66 65 65 65 67 66 67 67 66 68 74 70 68
72 66 66 66 68 66 67 66 66 65 65 65 64 64 64 64 64 65 65 66 64 64 65 67 65 67 67 68 70 72 68 66
68 66 65 64 64 66 64 65 66 66 65 65 64 64 63 64 64 66 66 66 66 66 67 69 67 67 68 69 69 71 68 67
67 65 65 65 64 64 65 65 65 65 65 65 65 64 64 63 63 67 68 68 67 68 69 68 69 67 67 68 69 70 68 66
66 64 65 66 64 64 64 65 64 64 64 65 65 65 64 64 64 67 67 69 67 67 67 67 66 69 66 67 67 68 69 67
67 67 66 66 63 64 64 63 63 62 61 63 64 64 64 63 64 65 65 66 66 66 65 64 65 65 64 64 66 67 68 67
64 65 64 63 62 61 60 60 60 61 60 60 62 62 62 63 63 63 65 65 64 66 64 64 63 63 65 65 66 65 66 71
63 63 63 62 60 59 59 58 58 58 59 59 60 60 61 61 60 61 62 63 63 63 63 64 63 63 71 68 65 64 65 64
61 62 61 60 58 57 56 56 56 57 57 59 59 59 61 60 59 59 61 61 63 63 63 63 63 64 61 61 62 64 63 63
61 62 62 60 60 59 59 58 58 57 57 58 59 59 60 60 59 60 61 61 61 62 62 60 61 62 60 60 54 58 61 63
61 63 63 61 60 59 58 58 57 56 57 57 59 59 60 61 60 63 60 62 62 61 62 61 59 61 63 59 55 52 55 60
63 63 63 61 61 59 58 57 55 57 58 61 64 63 63 65 64 65 64 65 63 63 65 63 62 60 60 62 59 59 55 53
63 63 63 62 61 60 58 57 59 58 59 60 62 63 64 65 66 65 63 64 64 62 63 63 62 60 59 58 58 58 58 55
63 62 62 62 61 61 59 58 58 57 58 59 61 63 63 63 65 63 63 64 63 65 62 63 62 61 61 61 60 57 57 55
64 63 61 62 61 60 60 59 59 59 59 61 61 62 61 61 63 62 64 65 66 65 63 62 62 60 61 60 61 61 61 59
65 64 62 62 61 61 61 61 59 60 61 62 62 62 63 63 63 64 65 66 64 64 62 62 62 61 61 60 61 61 61 60

GFSFLT2_sfc_temp_093.txt.gz
Temp
68 69 71 71 71 70 69 69 69 69 69 68 68 66 67 70 70 72 72 71 71 70 70 69 69 69 68 68 68 69 68 68
67 67 68 67 67 68 68 68 68 68 68 67 66 67 67 68 69 71 71 70 70 69 69 68 69 68 68 67 69 68 68 66
67 68 68 68 66 69 68 68 68 68 68 67 65 65 67 67 68 69 69 69 68 68 68 67 67 67 67 67 68 68 67 66
66 68 67 68 69 64 64 66 66 65 65 65 64 64 64 67 67 68 68 68 67 67 67 66 66 62 63 66 69 67 66 65
63 64 65 67 66 65 63 64 64 64 64 64 63 64 65 65 65 65 65 66 64 64 65 64 64 62 63 64 68 66 65 66
62 62 64 64 66 65 65 64 64 64 64 63 62 63 63 64 63 64 64 62 60 62 61 61 62 64 65 64 67 64 64 63
60 62 63 63 63 64 64 63 64 64 64 63 64 64 63 63 62 63 63 62 62 62 59 62 62 64 64 67 66 64 64 63
60 61 62 62 59 60 61 63 64 64 64 64 64 64 64 63 61 63 62 62 64 63 64 62 62 64 64 67 66 64 64 62
60 60 63 62 59 60 60 61 63 64 64 64 64 64 64 62 61 63 64 64 64 62 64 62 61 64 65 65 66 64 63 62
61 63 63 63 60 60 60 62 63 64 64 64 64 64 64 62 61 64 64 64 64 65 65 62 60 62 60 61 65 64 63 63
59 60 62 61 61 60 59 61 62 61 63 64 64 64 64 62 62 63 63 65 64 65 60 64 62 61 62 61 62 64 63 65
59 59 61 60 59 59 58 58 58 60 61 62 64 64 64 62 62 63 64 64 63 64 63 62 63 63 69 63 61 63 64 63
58 58 59 59 57 57 56 55 56 57 59 60 61 63 62 62 61 60 66 64 63 63 61 62 60 61 60 59 59 60 61 60
58 59 60 59 58 58 57 56 57 56 57 57 58 60 61 60 60 59 62 63 60 60 61 58 60 59 58 56 53 57 57 59
58 60 60 60 59 58 57 56 56 55 54 55 57 58 60 59 58 58 59 60 59 59 60 60 59 57 61 57 50 49 53 56
59 61 60 60 59 57 55 55 53 55 56 56 56 57 58 59 59 59 58 59 59 60 61 60 58 57 56 60 58 56 51 50
59 62 60 59 59 58 56 55 56 57 56 55 56 57 58 58 59 59 59 60 60 60 59 59 58 56 56 56 56 55 55 53
59 61 60 60 59 59 56 55 56 56 56 57 57 59 60 60 60 61 60 62 61 62 59 59 58 58 58 58 57 54 53 52
58 60 59 60 59 58 59 58 57 57 58 58 58 58 59 59 61 61 61 62 61 62 60 60 59 58 58 58 58 57 57 56
59 60 59 60 60 59 60 60 59 59 59 59 60 60 60 60 59 61 62 61 61 60 61 61 59 59 58 59 59 58 58 58

GFSFLT2_sfc_temp_096.txt.gz
Temp
67 68 71 71 70 70 70 70 69 69 69 68 69 68 68 68 69 69 72 71 71 71 70 70 70 69 69 68 67 68 67 67
65 66 67 68 68 68 68 68 68 68 68 68 68 67 68 68 69 68 71 71 70 70 69 69 69 68 67 67 67 67 66 65
64 65 66 65 65 68 68 68 68 68 68 67 65 63 65 68 69 68 70 70 70 69 68 68 67 67 67 67 67 67 66 65
63 64 65 65 67 66 66 66 65 64 64 64 61 63 64 66 67 68 70 69 68 68 68 67 66 64 67 67 66 66 66 65
62 63 64 64 63 63 64 65 63 62 63 62 62 63 64 65 65 66 66 67 66 66 65 63 61 62 65 65 64 65 65 65
61 61 61 63 63 64 64 64 64 64 64 63 62 63 62 63 64 64 65 64 61 60 59 60 61 64 65 64 63 64 64 64
60 60 60 61 62 62 63 63 64 64 64 63 63 62 62 64 63 62 63 62 61 57 57 59 59 61 65 63 62 63 62 64
59 59 60 61 60 61 62 63 62 64 64 63 64 63 62 62 62 61 61 62 62 60 58 58 59 61 64 63 62 63 63 61
59 59 59 60 58 60 62 62 64 64 63 62 64 64 63 61 60 59 61 62 60 58 58 59 58 62 63 62 62 63 62 61
60 62 59 59 58 58 59 60 63 64 64 63 64 64 64 61 60 60 62 62 61 59 61 59 57 61 62 62 61 62 62 61
59 59 59 59 60 61 58 61 63 63 64 63 64 64 63 61 60 62 60 62 61 61 61 62 57 59 61 61 60 60 61 63
59 59 59 59 60 59 59 59 60 62 63 63 64 64 63 61 60 62 63 62 61 62 62 61 60 60 64 61 61 59 60 60
58 58 59 59 58 57 57 57 57 58 60 62 63 64 63 61 61 61 64 63 63 63 62 61 59 59 58 57 57 59 59 60
57 58 58 59 59 58 57 57 56 57 57 59 62 63 62 62 61 61 64 63 62 62 62 57 58 60 59 55 52 55 57 58
57 57 58 59 58 57 56 55 55 54 55 56 58 62 62 62 61 62 63 63 62 63 63 62 60 57 62 56 50 49 53 56
57 58 59 59 57 57 55 54 53 55 55 55 56 59 61 61 61 62 62 63 61 62 62 61 62 59 55 58 56 54 51 50
57 58 60 59 57 57 56 55 56 55 55 55 55 56 58 60 60 60 59 60 59 60 58 57 58 55 55 55 55 55 55 52
56 58 59 58 58 57 56 55 55 54 54 54 55 56 56 57 58 58 59 58 57 58 58 58 57 57 57 56 56 55 54 53
56 57 57 58 57 57 54 55 54 55 55 55 55 55 55 55 56 55 56 58 58 59 58 58 57 56 57 57 57 58 57 55
57 57 58 58 57 57 56 55 56 57 57 57 57 57 56 56 57 57 57 59 59 58 59 59 58 58 57 57 57 57 57 56

GFSFLT2_sfc_temp_099.txt.gz
Temp
67 68 70 70 70 70 70 70 70 69 69 69 69 69 68 70 71 71 71 71 72 71 71 69 69 69 68 67 66 67 65 65
65 66 67 69 69 69 68 69 69 68 69 69 68 68 68 68 69 69 70 71 71 70 70 69 68 68 67 66 66 66 64 64
64 64 64 65 67 67 69 69 68 68 68 68 66 64 64 66 67 68 69 69 71 69 69 68 67 67 66 66 66 64 64 64
63 63 63 64 66 66 66 67 67 67 66 65 63 61 63 65 67 68 69 69 69 68 68 66 66 65 66 66 64 64 65 64
62 63 63 63 63 63 65 65 64 64 64 63 62 62 62 63 64 66 66 68 67 67 65 63 64 65 64 62 63 64 64 64
61 62 62 62 62 62 65 65 63 63 63 62 60 62 63 63 64 64 64 64 64 63 60 61 61 62 62 62 63 64 62 61
61 60 61 62 62 62 63 65 63 63 63 62 62 62 63 64 64 64 64 63 64 60 60 61 60 61 62 62 62 61 61 63
60 60 60 61 62 61 62 63 64 64 63 63 63 63 62 63 62 63 62 62 63 62 59 60 59 61 60 62 60 59 59 59
59 59 59 60 60 60 61 61 63 62 63 62 63 63 62 63 62 60 61 60 62 61 59 59 56 61 59 58 60 59 58 58
60 62 59 58 58 58 59 62 63 63 63 63 64 63 62 60 62 60 58 58 61 61 60 58 58 59 58 58 59 60 58 58
59 59 58 58 57 57 57 61 63 63 63 62 63 63 62 60 60 59 58 59 60 61 59 60 59 59 58 57 58 59 58 61
59 59 58 58 58 58 58 60 62 62 63 63 63 64 62 60 58 57 58 59 60 61 59 58 60 60 62 57 56 58 59 58
58 57 59 60 58 58 58 58 58 60 62 63 63 63 62 60 58 57 59 60 61 61 60 58 55 61 57 54 53 56 56 57
57 58 60 60 60 59 56 57 57 58 59 61 63 63 62 61 59 57 61 61 60 60 61 55 55 60 58 55 50 53 55 55
57 60 60 60 57 55 55 55 55 55 56 58 59 63 62 61 60 59 61 62 60 62 62 61 58 56 61 55 49 48 51 52
58 59 59 59 57 55 55 55 53 55 55 56 57 60 62 62 61 60 62 62 61 62 63 62 62 58 55 57 56 54 50 47
58 59 58 57 57 54 54 55 56 55 55 55 56 57 60 61 60 59 59 60 62 62 59 58 62 56 57 54 55 54 54 52
58 59 58 58 57 54 53 55 54 53 54 54 55 56 57 59 59 58 59 58 59 59 57 58 56 56 56 56 56 55 54 53
58 58 58 57 56 54 54 54 55 55 54 55 54 55 55 56 58 57 57 57 59 59 58 57 57 55 56 57 57 58 56 55
57 57 57 57 56 54 56 55 56 56 56 56 56 56 56 56 57 57 57 57 58 57 57 57 57 56 57 57 57 56 57 57

GFSFLT2_sfc_temp_102.txt.gz
Temp
66 68 70 70 70 70 70 70 70 70 71 71 70 70 71 72 72 72 73 72 72 71 70 70 69 69 68 67 66 66 65 65
65 66 67 68 69 69 69 69 69 69 68 68 68 68 69 69 70 71 72 72 72 71 69 69 68 67 67 66 66 65 62 63
64 65 65 66 67 69 69 69 68 68 69 68 66 66 66 67 68 69 70 71 70 71 68 67 67 66 66 66 65 62 61 62
64 63 63 63 66 68 68 68 68 68 67 67 65 64 64 66 66 68 69 70 70 69 68 67 66 65 65 65 62 61 61 62
63 62 62 62 66 66 66 67 67 66 66 65 63 63 64 64 63 64 65 69 67 67 66 66 64 64 62 59 60 61 61 62
62 61 61 61 65 65 65 64 65 64 64 63 63 62 62 63 63 65 64 65 66 64 63 64 63 63 60 60 61 61 60 62
61 61 62 61 62 63 64 63 63 63 63 62 62 62 62 63 63 63 63 64 63 61 60 63 61 61 62 62 61 61 60 62
61 61 62 62 62 63 64 65 63 63 62 62 62 61 63 63 63 63 62 62 62 60 61 62 62 61 60 60 59 60 61 61
61 61 61 63 64 61 63 63 63 63 63 62 62 61 62 63 62 62 62 61 60 59 59 61 61 61 58 58 59 60 60 60
61 62 60 61 63 61 61 62 63 63 63 63 63 63 63 62 61 61 63 61 60 59 59 59 59 58 56 57 58 59 58 58
59 60 59 59 58 61 61 62 61 63 63 62 63 63 62 61 62 61 61 59 58 58 58 58 57 57 57 55 56 56 57 60
60 60 59 58 58 59 59 60 62 62 62 62 63 63 61 60 59 58 59 58 57 57 57 59 59 57 60 55 54 55 56 56
59 59 58 58 59 59 58 59 60 61 62 63 63 63 61 60 58 57 57 57 57 58 56 57 57 59 55 52 53 55 56 56
60 59 59 59 60 60 59 59 58 59 61 62 63 63 61 60 59 57 57 56 56 57 58 57 57 59 56 53 50 53 55 56
60 58 60 60 60 58 56 56 56 56 57 59 61 63 61 61 59 57 57 57 56 57 58 59 56 58 60 54 49 48 51 54
60 58 59 60 59 57 56 54 53 55 57 57 58 61 61 61 59 57 56 58 58 60 61 61 60 56 59 57 56 54 50 48
59 60 59 59 58 57 56 57 57 55 55 56 57 58 60 61 59 57 56 58 61 61 60 59 61 59 58 54 54 54 54 52
60 59 58 58 57 57 55 53 54 54 54 54 56 57 59 60 60 59 57 58 59 61 59 59 58 60 57 56 56 55 54 53
59 58 56 57 55 55 52 53 54 54 55 55 55 55 56 59 59 57 57 59 58 58 57 57 57 57 57 56 57 58 57 55
58 58 57 57 56 55 53 53 54 54 55 56 56 56 56 57 58 57 57 58 58 57 57 56 56 56 56 56 56 57 58 57

GFSFLT2_sfc_temp_105.txt.gz
Temp
74 74 74 70 70 71 70 71 71 71 72 71 72 72 71 73 73 73 74 73 73 71 70 70 69 69 68 67 66 69 78 78
74 74 74 75 76 69 69 69 69 70 70 70 69 69 70 71 70 71 73 72 72 71 70 69 69 68 67 66 66 68 77 78
73 74 74 73 75 75 69 69 69 69 70 69 68 75 75 74 73 68 71 71 71 70 68 67 67 66 66 65 67 76 76 77
73 73 73 74 75 75 71 72 72 70 72 74 73 72 73 74 72 69 70 69 68 69 67 66 66 65 69 67 76 74 75 76
68 69 72 73 73 74 71 70 69 69 72 69 69 67 68 70 70 71 71 69 72 67 67 67 67 66 69 73 74 74 75 76
69 69 70 71 72 72 72 69 67 68 68 70 70 67 66 66 66 67 69 72 72 66 67 67 65 69 69 71 72 74 75 76
69 69 70 70 68 68 69 68 66 67 69 67 70 69 65 68 66 66 70 70 69 64 65 64 64 69 70 70 71 72 73 75
71 70 70 71 67 66 67 66 66 66 67 67 68 69 68 65 65 66 66 65 66 63 61 61 61 70 67 70 71 72 72 72
69 70 70 70 69 65 67 67 67 65 65 66 68 68 66 65 65 65 65 62 62 61 60 60 60 68 67 69 70 70 71 72
71 70 69 68 67 65 66 66 67 67 66 66 67 67 67 67 65 63 63 60 59 60 58 58 59 65 64 68 70 70 71 71
71 69 68 66 67 65 65 65 65 66 66 65 67 66 67 68 65 63 62 60 57 58 58 58 60 62 64 67 68 69 69 70
71 69 68 66 64 63 64 63 63 65 64 65 66 64 65 65 63 61 61 59 58 58 58 58 60 60 66 65 68 69 69 69
68 67 67 64 61 60 61 61 62 62 64 64 64 64 64 63 62 60 62 59 57 58 58 57 58 65 62 60 63 65 66 68
66 67 65 67 65 64 65 64 63 63 64 64 64 64 64 62 60 58 59 59 57 57 58 56 57 60 61 61 52 56 63 66
65 67 64 68 67 65 65 62 61 60 60 62 63 65 62 62 59 58 57 57 56 57 58 58 56 58 63 64 54 53 58 64
65 65 63 66 65 63 63 63 61 61 61 62 63 63 62 62 60 59 58 58 56 57 58 58 57 56 61 64 64 60 58 53
65 63 63 64 64 64 63 61 63 62 63 61 61 62 62 61 60 58 58 58 57 58 57 57 59 59 60 59 59 60 62 61
64 60 61 62 63 62 59 59 62 62 60 59 60 59 59 61 60 59 58 58 57 58 59 59 60 62 63 63 60 60 57 59
63 60 60 60 61 59 59 60 62 61 59 58 58 58 59 60 59 57 57 58 59 59 58 61 63 62 61 63 63 63 62 61
62 61 59 60 59 58 58 62 63 64 62 60 60 63 60 63 60 58 58 57 58 58 58 58 59 60 61 62 63 63 64 64

GFSFLT2_sfc_temp_108.txt.gz
Temp
82 80 77 71 71 71 71 71 72 72 72 72 73 72 73 74 73 73 73 73 73 72 71 70 70 69 69 68 68 71 83 80
82 82 81 79 79 70 70 70 70 71 71 71 70 70 72 72 72 72 72 73 72 72 69 69 68 68 67 67 67 69 84 80
84 83 80 79 80 78 70 70 70 69 72 70 68 81 81 79 75 72 72 72 72 71 68 68 66 66 66 66 68 82 81 81
86 84 83 81 84 83 80 79 78 79 79 80 80 81 82 82 77 69 70 69 70 70 68 66 67 66 65 66 78 79 81 79
85 82 82 81 83 85 79 75 81 78 80 80 80 78 78 78 79 80 80 72 79 73 68 69 68 65 64 65 75 78 81 82
84 82 81 81 85 84 85 73 74 75 77 74 76 76 75 76 75 81 80 80 77 75 66 69 68 65 65 69 73 81 80 79
84 76 79 80 79 83 83 81 75 73 74 75 74 73 73 75 72 71 77 75 76 67 71 66 66 67 66 73 74 80 80 82
84 79 77 81 79 73 78 80 81 76 74 72 73 75 70 74 74 71 74 75 74 68 70 68 66 68 67 73 76 79 79 80
84 81 80 80 80 76 78 78 76 75 73 70 72 71 73 73 72 69 74 69 68 68 66 66 65 66 69 75 75 77 79 79
86 84 81 79 80 79 76 73 72 70 70 70 71 71 72 72 71 71 68 68 65 63 61 60 60 62 66 73 73 76 77 77
86 83 80 79 79 78 72 70 69 74 73 70 68 71 72 72 72 67 66 64 62 61 60 60 59 60 64 73 73 75 76 79
86 84 80 79 78 73 70 69 68 72 75 75 74 73 71 72 70 66 63 60 58 59 59 59 59 59 63 69 71 75 76 72
82 81 79 77 70 67 65 63 66 67 70 72 74 72 73 69 66 64 61 59 59 60 59 57 57 59 60 62 66 69 71 70
80 80 79 77 71 69 71 66 67 68 68 72 71 72 70 66 64 63 61 59 60 61 59 57 58 61 59 58 54 58 65 69
79 80 79 77 76 68 70 68 67 64 65 67 68 70 68 65 64 63 61 60 58 58 58 58 56 60 63 62 55 54 61 65
79 79 79 77 76 67 68 68 65 70 67 68 66 68 66 66 66 65 61 60 58 58 59 58 59 57 60 62 69 67 63 57
76 76 77 74 73 68 70 72 75 75 73 70 64 65 66 66 63 60 59 59 59 59 58 58 58 58 58 60 64 65 68 64
75 73 74 71 67 68 70 73 74 72 68 64 62 63 64 63 62 61 60 60 59 59 59 58 57 58 58 60 63 63 63 63
75 73 71 68 64 66 70 74 72 72 71 69 63 64 63 63 60 60 59 59 62 61 60 59 59 58 58 59 64 67 66 67
74 73 68 66 63 63 68 70 74 74 72 70 67 66 68 61 60 62 60 60 60 60 59 59 59 59 59 61 64 67 67 69

GFSFLT2_sfc_temp_111.txt.gz
Temp
84 80 77 71 72 72 72 71 72 72 73 72 72 72 72 73 73 74 74 74 73 72 71 70 70 70 68 68 69 70 83 82
85 83 82 81 79 70 70 70 71 71 72 71 70 70 72 72 72 73 74 73 73 71 69 69 69 68 67 66 68 67 80 79
87 86 85 84 84 78 71 70 70 70 72 71 70 81 81 80 75 71 72 72 72 71 69 68 67 66 66 65 66 84 74 76
89 87 86 85 86 82 80 81 80 80 80 81 80 81 82 80 78 70 72 71 70 68 67 66 67 71 67 66 67 71 76 73
91 87 86 85 87 88 87 80 82 81 80 81 82 81 81 81 78 77 76 72 79 75 70 75 74 70 69 66 67 67 67 73
91 90 86 84 88 88 89 81 83 80 82 80 78 77 78 78 79 78 77 79 80 77 73 73 72 70 70 67 66 66 66 72
91 89 86 85 83 88 87 83 78 82 81 82 82 80 78 78 78 79 78 77 79 74 74 72 71 69 69 68 66 66 68 73
92 89 84 85 84 84 86 86 83 77 75 80 79 80 78 76 76 76 78 78 77 73 71 73 69 68 67 66 66 69 73 71
91 88 84 82 84 84 84 86 85 83 78 77 78 78 77 77 75 73 75 77 75 72 71 71 69 66 64 65 66 74 76 73
93 91 86 80 83 85 82 84 83 84 81 78 76 75 76 77 76 74 73 74 72 72 68 66 64 63 64 64 67 73 75 71
92 90 86 84 82 85 83 81 82 82 81 75 76 71 72 74 78 75 74 71 69 68 63 64 61 61 62 63 67 73 72 77
91 90 87 83 83 83 84 80 80 80 79 77 76 75 74 72 75 73 72 67 64 63 61 60 61 61 62 62 63 69 76 75
89 87 87 85 82 81 80 70 71 73 81 80 79 76 73 70 71 71 67 65 62 62 60 60 59 60 59 60 61 66 71 74
87 87 86 86 84 83 76 69 70 71 75 78 78 74 73 72 71 65 62 62 61 60 59 57 58 59 58 57 54 60 66 70
85 86 86 85 83 80 72 71 69 67 68 73 75 74 74 72 72 66 62 61 59 59 59 59 57 58 59 59 53 53 58 64
83 84 85 85 83 78 70 68 66 69 70 73 73 74 73 72 68 65 62 61 60 60 61 60 59 57 58 60 61 62 58 54
81 81 83 84 83 79 71 67 73 76 74 73 70 71 69 71 68 64 62 61 61 59 59 58 58 57 58 57 57 59 65 62
80 80 80 81 81 78 71 68 74 77 76 74 70 68 69 67 66 64 65 63 61 59 60 58 58 58 59 59 58 58 62 61
79 80 79 79 77 75 69 69 72 77 76 74 71 69 67 65 63 63 63 63 62 60 59 59 58 57 58 58 59 60 64 64
76 76 78 79 76 68 70 68 70 74 75 75 72 71 70 64 62 62 61 62 62 60 59 59 59 58 58 58 58 59 63 67

GFSFLT2_sfc_temp_117.txt.gz
Temp
69 70 72 71 71 71 71 71 72 72 72 72 72 72 72 73 73 73 72 72 72 72 71 70 70 70 70 68 67 68 66 66
69 69 69 68 69 70 70 70 71 72 72 72 71 71 71 71 72 72 73 72 72 72 70 69 70 69 68 68 66 67 67 68
69 69 69 68 68 70 70 70 70 70 71 74 69 70 70 71 70 71 72 71 71 71 69 68 68 67 67 66 66 68 65 66
71 69 69 69 74 68 68 70 69 70 69 69 69 69 69 72 71 70 71 70 70 69 68 67 66 64 64 66 64 66 65 65
72 71 71 70 73 68 68 68 68 68 69 69 68 70 69 70 67 68 67 70 67 67 66 65 65 63 63 63 64 65 65 64
74 73 72 72 71 70 70 69 68 68 68 69 68 67 67 67 67 67 67 65 65 65 64 64 65 64 64 63 64 64 64 64
76 75 74 74 71 72 72 71 70 70 69 70 69 68 67 67 66 67 67 67 66 64 64 64 64 64 64 63 63 63 64 63
78 77 76 76 75 71 71 72 71 70 69 71 69 68 67 67 66 66 66 66 65 65 65 64 63 63 64 64 62 62 63 62
78 76 76 76 76 72 69 72 72 69 70 69 71 69 68 67 67 65 66 66 65 64 63 63 63 65 63 65 62 62 63 64
78 79 76 75 75 74 72 70 71 70 68 68 70 70 69 67 67 65 65 64 64 64 64 62 62 62 61 61 61 62 64 64
77 76 75 74 71 73 70 69 69 70 68 68 68 69 68 68 67 65 65 64 63 63 61 62 62 62 61 62 61 61 62 65
75 77 76 74 73 70 70 68 67 68 70 70 68 69 68 67 66 66 65 63 62 62 62 60 62 63 62 61 61 61 62 62
70 72 73 71 68 67 65 69 68 65 67 69 69 70 70 68 67 66 66 64 63 63 63 62 60 61 60 59 60 61 61 61
70 71 70 71 71 71 68 66 67 70 66 66 68 67 67 69 68 65 64 63 63 62 61 59 59 61 58 57 54 56 59 61
71 70 70 69 71 68 64 64 63 62 63 64 66 67 67 67 67 65 64 62 61 61 61 60 58 59 60 57 53 52 56 58
69 70 70 71 69 66 64 63 60 61 62 63 68 67 68 68 67 64 62 61 61 62 61 60 59 57 59 58 56 56 53 52
67 69 69 70 68 66 64 62 64 61 61 62 63 66 68 68 67 63 62 61 59 61 60 60 60 58 58 57 56 56 56 55
63 63 65 66 66 65 63 62 62 60 61 61 63 65 65 65 66 63 63 62 61 60 60 59 59 59 59 58 57 57 56 56
63 63 63 62 62 62 62 63 62 62 62 62 62 64 65 65 65 62 61 61 61 61 59 59 59 59 58 58 59 57 60 59
58 60 60 60 61 60 60 62 64 64 65 65 64 65 65 66 64 63 62 61 61 60 59 59 59 58 58 58 58 58 59 59

GFSFLT2_sfc_temp_120.txt.gz
Temp
68 70 71 71 70 71 71 71 71 71 72 72 72 72 72 73 73 73 73 73 73 72 71 71 71 70 70 66 66 68 65 64
68 67 69 70 71 70 70 70 70 70 71 71 70 70 71 72 72 72 72 72 72 71 70 70 70 69 68 66 66 67 64 64
67 67 67 66 68 70 70 70 70 70 70 70 69 69 70 70 70 70 72 71 71 71 69 68 68 68 67 65 66 65 64 65
67 67 67 66 71 70 70 71 71 70 70 72 69 68 68 70 70 69 71 70 70 70 68 68 67 65 64 66 64 64 64 63
68 67 67 67 69 67 68 69 70 70 69 68 68 68 68 67 66 68 67 69 67 67 66 65 65 63 62 62 63 63 63 64
68 68 68 68 67 67 67 67 68 68 69 68 67 67 66 66 65 65 65 65 65 64 63 63 63 63 63 62 63 63 62 62
69 69 69 69 68 68 67 67 67 67 67 68 68 67 67 66 65 65 65 64 64 63 63 63 63 63 62 62 62 62 63 62
72 70 71 71 70 69 68 68 68 67 67 68 68 68 67 66 65 65 65 64 64 64 63 62 62 62 62 62 62 62 62 62
73 72 72 72 71 70 69 69 69 68 68 68 68 68 67 67 65 65 65 65 64 63 62 61 62 62 61 62 62 61 62 61
75 76 72 72 73 70 70 70 69 69 69 69 69 68 68 66 66 65 65 65 64 63 62 62 62 62 60 61 63 63 61 62
75 75 72 72 74 72 70 69 70 70 69 69 69 69 68 67 66 65 65 64 63 63 62 63 61 61 62 61 62 62 61 63
75 75 73 74 74 73 67 67 68 69 68 69 67 69 68 67 66 65 65 63 61 62 62 59 62 63 62 62 61 62 62 61
72 73 73 73 70 69 66 66 65 66 68 69 68 68 68 66 66 66 66 64 62 62 62 61 61 63 60 60 60 61 61 61
69 72 72 73 71 71 66 65 65 67 66 67 69 67 67 68 66 65 66 64 61 62 63 60 60 62 58 57 54 57 60 61
66 68 69 70 70 65 63 63 62 62 62 64 66 67 67 68 66 66 65 65 63 63 63 61 59 60 60 58 53 53 56 59
67 66 65 67 65 64 62 64 65 62 64 64 64 66 66 67 65 65 65 64 63 63 62 62 60 58 59 59 57 57 53 52
61 63 63 64 63 64 63 63 63 61 61 63 64 65 67 67 66 66 64 63 62 62 61 60 61 59 59 57 56 56 56 54
59 60 59 60 60 59 59 60 61 60 60 61 61 62 65 66 66 65 65 63 61 61 61 61 60 59 59 58 58 57 55 55
59 58 57 58 57 55 54 55 57 60 61 62 62 61 60 62 64 63 63 63 62 62 60 60 60 59 59 59 60 59 59 59
54 54 54 55 54 52 53 54 54 57 61 62 62 63 65 64 63 63 63 62 61 61 60 60 59 59 59 59 58 59 59 60

GFSFLT2_sfc_temp_123.txt.gz
Temp
69 70 71 71 70 70 70 71 71 71 72 72 72 72 72 72 73 73 73 73 73 72 71 70 71 70 68 67 66 68 64 65
69 70 71 71 70 69 70 70 70 70 71 70 70 70 71 71 71 72 72 72 72 72 70 70 70 68 67 67 66 67 63 65
68 69 70 71 72 70 70 70 70 69 70 70 68 69 70 70 70 70 71 71 71 70 69 68 67 67 66 67 66 64 62 63
67 68 68 69 72 72 71 72 71 71 70 70 69 67 68 69 69 69 70 70 70 69 69 67 67 64 64 66 63 63 63 63
66 67 67 68 70 71 70 71 71 70 69 68 68 68 67 67 67 67 67 68 67 67 66 65 64 63 62 62 63 63 63 62
66 66 66 66 67 69 70 70 70 70 70 66 67 69 67 65 66 65 65 65 65 64 63 63 63 62 62 61 62 62 62 62
66 66 66 67 66 67 69 69 69 69 70 68 67 69 68 66 65 65 65 64 64 63 62 62 62 62 61 61 61 62 62 61
68 67 67 67 67 66 66 66 67 67 68 69 68 68 68 65 65 64 64 64 63 63 62 61 61 61 61 61 61 61 61 61
68 68 68 67 67 66 66 67 66 66 66 67 68 67 66 65 65 64 64 63 63 62 61 61 60 61 61 61 61 61 61 61
70 72 69 68 68 67 67 67 66 67 66 66 67 67 67 65 65 64 64 63 63 62 61 59 60 60 59 60 62 61 61 60
69 70 69 69 69 69 67 67 67 67 66 66 67 67 67 66 65 64 64 63 63 62 60 61 61 61 60 60 61 62 62 63
72 71 70 70 70 67 65 65 65 66 67 67 67 67 67 66 65 64 64 63 62 62 62 61 61 62 62 61 61 62 62 62
69 69 70 69 69 66 64 65 66 65 67 67 67 67 67 66 65 64 65 64 62 62 61 61 61 63 60 60 60 61 61 61
68 69 70 70 71 71 68 68 65 67 66 67 67 67 67 67 66 65 66 65 63 62 63 60 61 62 59 58 55 57 60 60
68 70 70 70 70 65 63 63 62 62 63 65 67 66 67 67 66 65 64 64 63 63 63 62 59 61 60 57 53 52 54 59
60 61 61 63 64 63 63 63 61 64 65 66 65 66 66 67 66 65 65 65 64 63 64 63 62 59 60 59 58 56 53 52
58 59 59 60 60 62 61 61 61 61 61 62 62 64 65 66 67 65 65 64 64 64 62 62 62 60 59 58 56 54 56 54
56 56 56 56 56 56 56 55 56 58 60 60 61 62 64 65 66 65 66 64 63 63 62 62 61 61 60 59 58 56 55 54
54 53 52 52 52 52 53 53 54 54 58 60 60 60 61 63 63 63 64 63 63 63 62 61 61 60 59 59 59 58 58 58
50 50 49 50 50 49 50 50 51 52 55 58 60 62 63 64 63 63 64 63 61 62 61 61 60 60 59 59 59 60 60 59

GFSFLT2_sfc_temp_126.txt.gz
Temp
68 70 71 71 70 71 70 71 71 72 72 72 72 72 72 73 73 73 73 73 72 72 71 70 71 69 69 68 67 68 66 66
68 68 70 70 71 69 69 70 70 70 71 71 70 70 71 71 72 72 72 72 72 71 70 70 70 68 67 66 66 67 65 66
69 70 72 72 72 70 69 70 70 69 70 70 68 70 70 70 70 71 71 71 71 70 69 68 68 66 67 66 66 65 64 64
69 70 71 72 73 72 70 71 71 71 70 70 69 68 68 69 69 70 70 70 70 69 68 67 66 65 64 66 63 64 63 64
69 70 71 71 72 72 72 72 71 72 71 70 69 67 67 68 66 68 67 69 67 67 66 65 64 65 63 63 63 63 63 63
68 69 69 70 72 72 72 71 71 70 70 69 69 69 67 66 66 66 66 65 65 65 64 64 63 62 62 62 63 62 62 62
65 67 67 69 70 71 71 71 71 72 72 68 69 70 69 66 65 65 65 64 64 63 63 62 62 62 61 62 62 62 62 62
65 65 66 67 68 70 70 71 71 70 70 70 68 70 70 67 65 64 63 64 63 63 63 61 61 61 61 61 62 62 62 62
65 65 65 65 66 67 68 69 70 69 70 70 70 70 69 68 66 64 63 63 63 62 61 61 60 61 60 60 61 62 62 62
68 69 66 65 66 65 65 66 67 67 68 69 69 69 68 65 65 64 63 62 62 61 60 59 59 60 61 61 61 61 61 61
68 68 66 66 66 66 65 64 64 64 64 65 68 68 65 64 64 63 63 62 61 61 59 60 61 61 60 61 62 62 62 63
70 69 68 67 66 65 64 64 65 65 65 65 65 66 66 65 64 63 64 63 62 61 62 61 62 62 62 61 61 63 62 62
69 68 68 67 66 64 64 64 66 65 66 66 66 66 66 66 65 63 63 63 63 63 63 61 61 62 60 60 60 62 61 62
69 69 69 68 69 68 64 66 66 66 67 66 66 66 66 66 66 64 64 63 63 63 63 60 61 62 59 59 56 57 60 61
67 68 70 68 69 65 61 62 63 64 64 65 66 66 66 66 66 65 64 64 63 63 63 62 60 61 61 59 53 52 56 59
59 61 62 63 64 65 63 64 63 63 65 66 66 66 66 67 66 65 65 65 63 63 64 64 63 59 61 59 59 56 51 52
55 56 56 58 60 63 62 60 61 60 61 63 63 64 65 66 66 65 65 65 64 63 63 63 63 62 60 58 57 56 56 55
53 53 54 55 56 56 57 57 57 60 61 60 61 62 64 64 65 65 66 66 65 64 64 63 62 63 62 60 58 58 55 54
50 50 50 51 51 52 51 52 54 55 57 61 60 61 62 64 64 65 65 64 64 64 63 63 62 62 61 60 61 60 58 58
47 47 46 48 49 48 48 49 50 52 53 54 57 60 61 63 64 65 65 65 63 63 63 63 62 62 61 61 60 60 59 58

GFSFLT2_sfc_temp_129.txt.gz
Temp
76 77 75 71 71 71 71 71 72 72 72 72 72 72 72 73 73 73 73 73 72 72 71 71 70 70 69 68 68 69 79 80
75 75 76 76 76 69 69 70 70 71 71 71 70 71 71 72 72 72 72 72 72 71 70 70 69 69 68 67 67 68 79 78
75 75 76 76 75 74 70 70 70 70 71 70 70 79 78 77 74 71 71 71 71 71 69 69 67 67 67 66 67 81 78 79
74 75 76 77 76 74 75 76 78 78 78 77 78 78 79 79 74 70 70 70 70 69 69 67 69 77 75 69 78 78 78 78
73 74 75 76 76 75 74 76 76 76 76 77 77 77 77 78 77 78 77 72 78 75 75 79 76 76 76 75 76 76 78 78
74 75 74 74 76 75 74 73 74 74 74 73 74 75 75 76 78 78 77 78 78 78 76 77 76 71 75 75 74 75 77 77
72 73 73 73 73 74 74 72 72 73 73 72 73 73 73 73 76 77 78 78 78 75 77 76 75 74 74 74 74 74 74 76
72 71 71 72 72 73 74 73 72 72 72 71 71 73 73 72 72 75 75 76 76 77 75 75 75 74 73 73 74 75 74 74
71 70 69 70 71 73 74 73 73 71 72 72 70 72 73 71 71 72 75 73 74 74 74 73 73 73 73 73 73 73 74 74
74 73 70 69 70 72 74 74 73 73 72 72 71 71 73 70 69 70 73 73 73 72 72 71 71 71 71 71 72 72 73 73
74 73 71 70 71 70 70 71 71 72 72 71 71 70 70 70 68 69 72 73 71 71 69 71 68 68 69 65 66 65 71 73
76 74 72 71 73 72 71 69 69 69 69 70 71 70 70 69 71 69 73 70 69 69 69 69 69 70 65 63 64 64 67 70
75 73 73 71 72 71 71 68 69 69 73 73 71 71 69 69 72 72 71 68 68 67 69 67 65 65 63 62 62 64 64 68
75 74 73 73 74 74 73 72 72 74 73 73 73 73 71 71 71 70 69 67 67 66 67 64 65 65 62 61 60 62 64 65
74 75 74 73 74 73 73 71 71 69 68 70 71 73 73 73 71 70 68 69 66 65 67 68 63 63 65 66 60 62 64 65
76 75 75 74 74 72 71 71 69 70 72 68 69 71 72 73 71 70 69 68 67 66 67 68 68 62 63 63 65 67 64 61
69 69 72 72 73 72 70 70 72 72 69 67 67 67 66 66 65 65 67 67 68 67 66 67 69 68 65 62 61 60 61 61
59 60 57 58 62 66 69 68 67 66 67 65 66 66 63 62 62 62 65 66 67 67 68 67 67 69 67 66 63 60 59 61
55 56 54 54 52 52 54 57 59 62 66 66 67 66 65 63 64 64 66 67 67 67 66 66 67 66 67 66 64 66 63 63
50 52 51 51 52 53 53 51 54 56 58 60 64 65 67 68 67 67 67 67 66 65 65 66 66 66 67 68 64 65 64 62